Wetterdaten: Montag, 07.05.2012
Datum Zeit Temp. A. Feuchte A. Regen Wind Richtung Richtung Taupunkt Windchill Windben
07.05.2012 00:00 8,3 C 83 % 0,0 l/m 2,3 km/h (1 Bft) O 90 5,6 C 7,3 C 6,0 km/h (2 Bft)
07.05.2012 00:02 8,3 C 83 % 0,0 l/m 2,3 km/h (1 Bft) O 90 5,6 C 7,3 C 6,0 km/h (2 Bft)
07.05.2012 00:04 8,3 C 83 % 0,0 l/m 1,8 km/h (1 Bft) O-NO 67 5,6 C 7,4 C 1,8 km/h (1 Bft)
07.05.2012 00:07 8,3 C 83 % 0,0 l/m 1,9 km/h (1 Bft) O 90 5,6 C 7,4 C 4,3 km/h (1 Bft)
07.05.2012 00:08 8,3 C 83 % 0,0 l/m 1,9 km/h (1 Bft) O 90 5,6 C 7,4 C 4,3 km/h (1 Bft)
07.05.2012 00:10 8,3 C 83 % 0,0 l/m 2,3 km/h (1 Bft) SO 135 5,6 C 7,4 C 6,0 km/h (2 Bft)
07.05.2012 00:12 8,3 C 83 % 0,0 l/m 3,1 km/h (1 Bft) NO 45 5,6 C 7,4 C 4,8 km/h (1 Bft)
07.05.2012 00:14 8,3 C 83 % 0,0 l/m 3,1 km/h (1 Bft) NO 45 5,6 C 7,4 C 0,0 km/h (0 Bft)
07.05.2012 00:16 8,3 C 83 % 0,0 l/m 3,1 km/h (1 Bft) N-NO 22 5,6 C 7,4 C 7,4 km/h (2 Bft)
07.05.2012 00:18 8,1 C 83 % 0,0 l/m 2,6 km/h (1 Bft) N-NO 22 5,4 C 7,4 C 0,0 km/h (0 Bft)
07.05.2012 00:20 8,1 C 83 % 0,0 l/m 1,9 km/h (1 Bft) NO 45 5,4 C 7,3 C 2,4 km/h (1 Bft)
07.05.2012 00:22 8,1 C 83 % 0,0 l/m 1,9 km/h (1 Bft) NO 45 5,4 C 7,3 C 2,4 km/h (1 Bft)
07.05.2012 00:24 8,1 C 83 % 0,0 l/m 0,5 km/h (0 Bft) O 90 5,4 C 7,2 C 0,0 km/h (0 Bft)
07.05.2012 00:26 8,1 C 83 % 0,0 l/m 0,3 km/h (0 Bft) NO 45 5,4 C 7,1 C 2,3 km/h (1 Bft)
07.05.2012 00:28 8,1 C 83 % 0,0 l/m 0,2 km/h (0 Bft) N-NW 337 5,4 C 7,1 C 0,0 km/h (0 Bft)
07.05.2012 00:30 8,1 C 83 % 0,0 l/m 0,2 km/h (0 Bft) N 360 5,4 C 7,1 C 0,0 km/h (0 Bft)
07.05.2012 00:32 8,1 C 83 % 0,0 l/m 0,3 km/h (0 Bft) N 360 5,4 C 7,1 C 2,4 km/h (1 Bft)
07.05.2012 00:34 8,1 C 83 % 0,0 l/m 0,3 km/h (0 Bft) N-NO 22 5,4 C 7,1 C 0,0 km/h (0 Bft)
07.05.2012 00:36 8,1 C 83 % 0,0 l/m 0,3 km/h (0 Bft) SO 135 5,4 C 7,1 C 0,0 km/h (0 Bft)
07.05.2012 00:38 8,1 C 83 % 0,0 l/m 0,2 km/h (0 Bft) W 270 5,4 C 7,1 C 0,0 km/h (0 Bft)
07.05.2012 00:40 8,1 C 83 % 0,0 l/m 0,2 km/h (0 Bft) N-NW 337 5,4 C 7,1 C 0,0 km/h (0 Bft)
07.05.2012 00:42 8,1 C 83 % 0,0 l/m 0,2 km/h (0 Bft) N-NW 337 5,4 C 7,1 C 0,0 km/h (0 Bft)
07.05.2012 00:44 8,1 C 83 % 0,0 l/m 0,0 km/h (0 Bft) N 360 5,4 C 7,0 C 0,0 km/h (0 Bft)
07.05.2012 00:46 8,1 C 83 % 0,0 l/m 0,0 km/h (0 Bft) NO 45 5,4 C 7,0 C 0,0 km/h (0 Bft)
07.05.2012 00:48 8,1 C 83 % 0,0 l/m 0,0 km/h (0 Bft) SO 135 5,4 C 7,0 C 0,0 km/h (0 Bft)
07.05.2012 00:50 8,1 C 83 % 0,0 l/m 0,0 km/h (0 Bft) N 360 5,4 C 6,9 C 0,0 km/h (0 Bft)
07.05.2012 00:52 8,1 C 83 % 0,0 l/m 0,0 km/h (0 Bft) W-NW 292 5,4 C 6,9 C 0,0 km/h (0 Bft)
07.05.2012 00:54 8,1 C 83 % 0,0 l/m 0,0 km/h (0 Bft) N-NW 337 5,4 C 6,9 C 0,0 km/h (0 Bft)
07.05.2012 00:56 8,0 C 83 % 0,0 l/m 0,0 km/h (0 Bft) N-NW 337 5,3 C 6,9 C 0,0 km/h (0 Bft)
07.05.2012 00:58 8,0 C 83 % 0,0 l/m 0,0 km/h (0 Bft) N 360 5,3 C 6,8 C 0,0 km/h (0 Bft)
07.05.2012 01:00 8,0 C 83 % 0,0 l/m 0,0 km/h (0 Bft) N-NW 337 5,3 C 6,7 C 1,6 km/h (1 Bft)
07.05.2012 01:02 8,0 C 83 % 0,0 l/m 0,0 km/h (0 Bft) N-NO 22 5,3 C 6,7 C 1,6 km/h (1 Bft)
07.05.2012 01:04 8,1 C 83 % 0,0 l/m 0,0 km/h (0 Bft) N-NO 22 5,4 C 6,7 C 0,0 km/h (0 Bft)
07.05.2012 01:06 8,0 C 83 % 0,0 l/m 0,0 km/h (0 Bft) N-NO 22 5,3 C 6,7 C 0,0 km/h (0 Bft)
07.05.2012 01:08 8,1 C 83 % 0,0 l/m 0,2 km/h (0 Bft) O-SO 112 5,4 C 6,6 C 3,4 km/h (1 Bft)
07.05.2012 01:10 8,0 C 83 % 0,0 l/m 0,5 km/h (0 Bft) N 360 5,3 C 6,7 C 1,9 km/h (1 Bft)
07.05.2012 01:12 8,0 C 83 % 0,0 l/m 0,6 km/h (0 Bft) NO 45 5,3 C 6,7 C 2,4 km/h (1 Bft)
07.05.2012 01:14 8,0 C 83 % 0,0 l/m 0,6 km/h (0 Bft) N-NO 22 5,3 C 6,8 C 0,0 km/h (0 Bft)
07.05.2012 01:16 8,1 C 83 % 0,0 l/m 0,8 km/h (0 Bft) S-SO 157 5,4 C 6,8 C 2,1 km/h (1 Bft)
07.05.2012 01:18 8,1 C 83 % 0,0 l/m 0,8 km/h (0 Bft) O 90 5,4 C 6,9 C 0,0 km/h (0 Bft)
07.05.2012 01:20 8,0 C 83 % 0,0 l/m 0,6 km/h (0 Bft) O 90 5,3 C 6,9 C 3,1 km/h (1 Bft)
07.05.2012 01:22 8,0 C 83 % 0,0 l/m 0,6 km/h (0 Bft) O 90 5,3 C 6,9 C 3,1 km/h (1 Bft)
07.05.2012 01:24 8,0 C 83 % 0,0 l/m 0,8 km/h (0 Bft) N-NO 22 5,3 C 6,9 C 0,0 km/h (0 Bft)
07.05.2012 01:26 8,1 C 83 % 0,0 l/m 1,0 km/h (0 Bft) W-NW 292 5,4 C 6,9 C 2,9 km/h (1 Bft)
07.05.2012 01:28 8,0 C 83 % 0,0 l/m 1,0 km/h (0 Bft) N-NO 22 5,3 C 6,9 C 1,6 km/h (1 Bft)
07.05.2012 01:30 8,1 C 83 % 0,0 l/m 1,1 km/h (1 Bft) N 360 5,4 C 7,0 C 2,4 km/h (1 Bft)
07.05.2012 01:32 8,1 C 83 % 0,0 l/m 1,1 km/h (1 Bft) N 360 5,4 C 7,0 C 2,1 km/h (1 Bft)
07.05.2012 01:34 8,1 C 83 % 0,0 l/m 1,0 km/h (0 Bft) O-NO 67 5,4 C 7,1 C 1,8 km/h (1 Bft)
07.05.2012 01:36 8,0 C 83 % 0,0 l/m 1,1 km/h (1 Bft) N 360 5,3 C 7,1 C 1,8 km/h (1 Bft)
07.05.2012 01:38 8,0 C 83 % 0,0 l/m 1,0 km/h (0 Bft) NO 45 5,3 C 7,1 C 0,0 km/h (0 Bft)
07.05.2012 01:40 8,0 C 83 % 0,0 l/m 1,0 km/h (0 Bft) N 360 5,3 C 7,2 C 2,1 km/h (1 Bft)
07.05.2012 01:42 8,1 C 83 % 0,0 l/m 1,0 km/h (0 Bft) N 360 5,4 C 7,2 C 2,1 km/h (1 Bft)
07.05.2012 01:44 8,1 C 83 % 0,0 l/m 0,6 km/h (0 Bft) N-NO 22 5,4 C 7,2 C 0,0 km/h (0 Bft)
07.05.2012 01:46 8,1 C 83 % 0,0 l/m 0,8 km/h (0 Bft) N-NO 22 5,4 C 7,3 C 1,8 km/h (1 Bft)
07.05.2012 01:48 8,1 C 83 % 0,0 l/m 0,8 km/h (0 Bft) N-NO 22 5,4 C 7,3 C 1,6 km/h (1 Bft)
07.05.2012 01:50 8,1 C 83 % 0,0 l/m 0,8 km/h (0 Bft) N-NO 22 5,4 C 7,3 C 2,4 km/h (1 Bft)
07.05.2012 01:52 8,1 C 83 % 0,0 l/m 0,6 km/h (0 Bft) N 360 5,4 C 7,3 C 2,6 km/h (1 Bft)
07.05.2012 01:54 8,1 C 83 % 0,0 l/m 0,6 km/h (0 Bft) N 360 5,4 C 7,3 C 1,6 km/h (1 Bft)
07.05.2012 01:56 8,1 C 83 % 0,0 l/m 0,6 km/h (0 Bft) N-NO 22 5,4 C 7,3 C 0,0 km/h (0 Bft)
07.05.2012 01:58 8,1 C 82 % 0,0 l/m 1,0 km/h (0 Bft) NO 45 5,2 C 7,3 C 3,7 km/h (1 Bft)
07.05.2012 02:00 8,1 C 82 % 0,0 l/m 1,0 km/h (0 Bft) N-NO 22 5,2 C 7,3 C 0,0 km/h (0 Bft)
07.05.2012 02:02 8,1 C 82 % 0,0 l/m 1,0 km/h (0 Bft) N-NO 22 5,2 C 7,3 C 0,0 km/h (0 Bft)
07.05.2012 02:04 8,1 C 82 % 0,0 l/m 0,8 km/h (0 Bft) NO 45 5,2 C 7,2 C 0,0 km/h (0 Bft)
07.05.2012 02:06 8,0 C 82 % 0,0 l/m 1,0 km/h (0 Bft) N-NO 22 5,1 C 7,1 C 2,4 km/h (1 Bft)
07.05.2012 02:08 8,1 C 82 % 0,0 l/m 1,0 km/h (0 Bft) N-NO 22 5,2 C 7,1 C 2,4 km/h (1 Bft)
07.05.2012 02:10 8,0 C 82 % 0,0 l/m 0,5 km/h (0 Bft) NW 315 5,1 C 6,9 C 0,0 km/h (0 Bft)
07.05.2012 02:12 7,9 C 82 % 0,0 l/m 0,6 km/h (0 Bft) NO 45 5,0 C 6,8 C 1,6 km/h (1 Bft)
07.05.2012 02:14 7,8 C 82 % 0,0 l/m 0,6 km/h (0 Bft) NO 45 4,9 C 6,8 C 1,6 km/h (1 Bft)
07.05.2012 02:16 7,9 C 82 % 0,0 l/m 0,5 km/h (0 Bft) N-NO 22 5,0 C 6,6 C 2,6 km/h (1 Bft)
07.05.2012 02:18 7,8 C 82 % 0,0 l/m 0,5 km/h (0 Bft) N-NO 22 4,9 C 6,6 C 0,0 km/h (0 Bft)
07.05.2012 02:20 7,7 C 82 % 0,0 l/m 0,6 km/h (0 Bft) NO 45 4,8 C 6,5 C 2,7 km/h (1 Bft)
07.05.2012 02:22 7,6 C 82 % 0,0 l/m 0,6 km/h (0 Bft) W-NW 292 4,7 C 6,5 C 2,1 km/h (1 Bft)
07.05.2012 02:24 7,7 C 83 % 0,0 l/m 0,6 km/h (0 Bft) NO 45 5,0 C 6,4 C 2,1 km/h (1 Bft)
07.05.2012 02:26 7,7 C 83 % 0,0 l/m 0,6 km/h (0 Bft) N 360 5,0 C 6,3 C 1,9 km/h (1 Bft)
07.05.2012 02:28 7,6 C 83 % 0,0 l/m 0,6 km/h (0 Bft) N 360 4,9 C 6,2 C 2,3 km/h (1 Bft)
07.05.2012 02:30 7,5 C 83 % 0,0 l/m 0,6 km/h (0 Bft) N-NO 22 4,8 C 6,2 C 2,3 km/h (1 Bft)
07.05.2012 02:32 7,5 C 83 % 0,0 l/m 0,6 km/h (0 Bft) N 360 4,8 C 6,1 C 1,6 km/h (1 Bft)
07.05.2012 02:34 7,4 C 83 % 0,0 l/m 0,5 km/h (0 Bft) N 360 4,7 C 6,1 C 0,0 km/h (0 Bft)
07.05.2012 02:36 7,5 C 83 % 0,0 l/m 0,6 km/h (0 Bft) N-NW 337 4,8 C 6,0 C 1,9 km/h (1 Bft)
07.05.2012 02:38 7,5 C 83 % 0,0 l/m 0,6 km/h (0 Bft) N-NW 337 4,8 C 5,9 C 1,9 km/h (1 Bft)
07.05.2012 02:40 7,3 C 83 % 0,0 l/m 0,6 km/h (0 Bft) N-NW 337 4,6 C 5,9 C 2,3 km/h (1 Bft)
07.05.2012 02:42 7,3 C 83 % 0,0 l/m 0,8 km/h (0 Bft) N 360 4,6 C 5,8 C 2,3 km/h (1 Bft)
07.05.2012 02:44 7,2 C 83 % 0,0 l/m 1,0 km/h (0 Bft) N-NO 22 4,5 C 5,8 C 1,6 km/h (1 Bft)
07.05.2012 02:46 7,2 C 84 % 0,0 l/m 1,0 km/h (0 Bft) NO 45 4,7 C 5,7 C 0,0 km/h (0 Bft)
07.05.2012 02:48 7,3 C 84 % 0,0 l/m 0,8 km/h (0 Bft) N 360 4,8 C 5,6 C 2,3 km/h (1 Bft)
07.05.2012 02:50 7,2 C 84 % 0,0 l/m 0,8 km/h (0 Bft) N 360 4,7 C 5,6 C 2,3 km/h (1 Bft)
07.05.2012 02:52 7,2 C 84 % 0,0 l/m 0,6 km/h (0 Bft) NO 45 4,7 C 5,6 C 0,0 km/h (0 Bft)
07.05.2012 02:54 7,1 C 83 % 0,0 l/m 0,3 km/h (0 Bft) NW 315 4,4 C 5,5 C 0,0 km/h (0 Bft)
07.05.2012 02:56 7,1 C 83 % 0,0 l/m 0,3 km/h (0 Bft) NO 45 4,4 C 5,5 C 2,1 km/h (1 Bft)
07.05.2012 02:58 7,0 C 83 % 0,0 l/m 0,3 km/h (0 Bft) NO 45 4,3 C 5,4 C 2,1 km/h (1 Bft)
07.05.2012 03:00 7,1 C 83 % 0,0 l/m 0,2 km/h (0 Bft) NO 45 4,4 C 5,3 C 0,0 km/h (0 Bft)
07.05.2012 03:02 6,9 C 83 % 0,0 l/m 0,2 km/h (0 Bft) N-NO 22 4,2 C 5,3 C 0,0 km/h (0 Bft)
07.05.2012 03:04 6,9 C 83 % 0,0 l/m 0,2 km/h (0 Bft) N-NO 22 4,2 C 5,3 C 0,0 km/h (0 Bft)
07.05.2012 03:06 6,9 C 83 % 0,0 l/m 0,2 km/h (0 Bft) N-NO 22 4,2 C 5,3 C 0,0 km/h (0 Bft)
07.05.2012 03:08 6,8 C 83 % 0,0 l/m 0,2 km/h (0 Bft) N-NO 22 4,1 C 5,2 C 1,9 km/h (1 Bft)
07.05.2012 03:10 6,9 C 83 % 0,0 l/m 0,2 km/h (0 Bft) NO 45 4,2 C 5,2 C 0,0 km/h (0 Bft)
07.05.2012 03:12 6,8 C 83 % 0,0 l/m 0,2 km/h (0 Bft) N-NO 22 4,1 C 5,1 C 2,3 km/h (1 Bft)
07.05.2012 03:14 6,7 C 83 % 0,0 l/m 0,3 km/h (0 Bft) W-NW 292 4,0 C 5,0 C 1,9 km/h (1 Bft)
07.05.2012 03:16 6,7 C 83 % 0,0 l/m 0,3 km/h (0 Bft) NO 45 4,0 C 5,0 C 2,1 km/h (1 Bft)
07.05.2012 03:18 6,6 C 83 % 0,0 l/m 0,3 km/h (0 Bft) N-NO 22 3,9 C 4,7 C 1,9 km/h (1 Bft)
07.05.2012 03:20 6,7 C 83 % 0,0 l/m 0,3 km/h (0 Bft) N 360 4,0 C 4,7 C 1,9 km/h (1 Bft)
07.05.2012 03:22 6,7 C 83 % 0,0 l/m 0,3 km/h (0 Bft) NO 45 4,0 C 4,7 C 0,0 km/h (0 Bft)
07.05.2012 03:24 6,5 C 83 % 0,0 l/m 0,3 km/h (0 Bft) N 360 3,8 C 4,6 C 1,6 km/h (1 Bft)
07.05.2012 03:26 6,4 C 83 % 0,0 l/m 0,3 km/h (0 Bft) NO 45 3,7 C 4,5 C 0,0 km/h (0 Bft)
07.05.2012 03:28 6,4 C 83 % 0,0 l/m 0,2 km/h (0 Bft) W-SW 247 3,7 C 4,4 C 0,0 km/h (0 Bft)
07.05.2012 03:30 6,3 C 83 % 0,0 l/m 0,2 km/h (0 Bft) N-NW 337 3,6 C 4,3 C 0,0 km/h (0 Bft)
07.05.2012 03:32 6,2 C 83 % 0,0 l/m 0,2 km/h (0 Bft) W-NW 292 3,5 C 4,1 C 0,0 km/h (0 Bft)
07.05.2012 03:34 6,3 C 84 % 0,0 l/m 0,2 km/h (0 Bft) NO 45 3,8 C 4,0 C 1,6 km/h (1 Bft)
07.05.2012 03:36 6,2 C 84 % 0,0 l/m 0,2 km/h (0 Bft) NO 45 3,7 C 3,9 C 0,0 km/h (0 Bft)
07.05.2012 03:38 6,1 C 84 % 0,0 l/m 0,6 km/h (0 Bft) N-NO 22 3,6 C 3,9 C 1,9 km/h (1 Bft)
07.05.2012 03:40 6,1 C 84 % 0,0 l/m 0,8 km/h (0 Bft) NO 45 3,6 C 3,9 C 1,8 km/h (1 Bft)
07.05.2012 03:42 6,1 C 85 % 0,0 l/m 0,8 km/h (0 Bft) NO 45 3,8 C 4,0 C 1,8 km/h (1 Bft)
07.05.2012 03:44 6,1 C 85 % 0,0 l/m 1,1 km/h (1 Bft) N-NO 22 3,8 C 4,0 C 3,2 km/h (1 Bft)
07.05.2012 03:46 6,0 C 84 % 0,0 l/m 1,3 km/h (1 Bft) NO 45 3,5 C 4,1 C 2,3 km/h (1 Bft)
07.05.2012 03:48 6,0 C 84 % 0,0 l/m 1,6 km/h (1 Bft) NO 45 3,5 C 4,2 C 3,9 km/h (1 Bft)
07.05.2012 03:50 6,1 C 85 % 0,0 l/m 1,4 km/h (1 Bft) NO 45 3,8 C 4,2 C 0,0 km/h (0 Bft)
07.05.2012 03:52 6,0 C 84 % 0,0 l/m 1,6 km/h (1 Bft) NO 45 3,5 C 4,2 C 2,6 km/h (1 Bft)
07.05.2012 03:54 6,0 C 84 % 0,0 l/m 1,1 km/h (1 Bft) N-NO 22 3,5 C 4,1 C 0,0 km/h (0 Bft)
07.05.2012 03:56 6,1 C 85 % 0,0 l/m 1,0 km/h (0 Bft) N 360 3,8 C 4,1 C 2,1 km/h (1 Bft)
07.05.2012 03:58 6,0 C 85 % 0,0 l/m 0,8 km/h (0 Bft) NO 45 3,7 C 4,1 C 2,1 km/h (1 Bft)
07.05.2012 04:00 6,1 C 85 % 0,0 l/m 0,8 km/h (0 Bft) NO 45 3,8 C 4,1 C 1,9 km/h (1 Bft)
07.05.2012 04:02 6,0 C 85 % 0,0 l/m 0,8 km/h (0 Bft) SO 135 3,7 C 4,2 C 1,9 km/h (1 Bft)
07.05.2012 04:04 6,0 C 85 % 0,0 l/m 0,6 km/h (0 Bft) N-NO 22 3,7 C 4,3 C 0,0 km/h (0 Bft)
07.05.2012 04:06 6,0 C 85 % 0,0 l/m 0,6 km/h (0 Bft) N-NO 22 3,7 C 4,3 C 0,0 km/h (0 Bft)
07.05.2012 04:08 6,1 C 85 % 0,0 l/m 0,3 km/h (0 Bft) N-NO 22 3,8 C 4,3 C 1,8 km/h (1 Bft)
07.05.2012 04:10 6,0 C 85 % 0,0 l/m 0,6 km/h (0 Bft) N-NO 22 3,7 C 4,3 C 1,8 km/h (1 Bft)
07.05.2012 04:12 6,0 C 85 % 0,0 l/m 0,6 km/h (0 Bft) N-NO 22 3,7 C 4,4 C 1,9 km/h (1 Bft)
07.05.2012 04:14 6,0 C 85 % 0,0 l/m 0,8 km/h (0 Bft) N-NO 22 3,7 C 4,4 C 1,9 km/h (1 Bft)
07.05.2012 04:16 6,0 C 85 % 0,0 l/m 0,6 km/h (0 Bft) N-NO 22 3,7 C 4,3 C 1,9 km/h (1 Bft)
07.05.2012 04:18 5,9 C 85 % 0,0 l/m 0,8 km/h (0 Bft) NO 45 3,6 C 4,3 C 2,1 km/h (1 Bft)
07.05.2012 04:20 5,9 C 85 % 0,0 l/m 0,6 km/h (0 Bft) S 180 3,6 C 4,3 C 2,1 km/h (1 Bft)
07.05.2012 04:22 5,9 C 85 % 0,0 l/m 1,0 km/h (0 Bft) S 180 3,6 C 4,2 C 2,1 km/h (1 Bft)
07.05.2012 04:24 5,9 C 85 % 0,0 l/m 0,8 km/h (0 Bft) W-NW 292 3,6 C 4,0 C 2,1 km/h (1 Bft)
07.05.2012 04:26 5,7 C 85 % 0,0 l/m 0,8 km/h (0 Bft) S-SO 157 3,4 C 3,9 C 0,0 km/h (0 Bft)
07.05.2012 04:28 5,6 C 85 % 0,0 l/m 0,8 km/h (0 Bft) N-NW 337 3,3 C 3,8 C 1,6 km/h (1 Bft)
07.05.2012 04:30 5,7 C 85 % 0,0 l/m 0,8 km/h (0 Bft) N 360 3,4 C 3,7 C 1,6 km/h (1 Bft)
07.05.2012 04:32 5,6 C 85 % 0,0 l/m 0,5 km/h (0 Bft) N 360 3,3 C 3,6 C 2,1 km/h (1 Bft)
07.05.2012 04:34 5,6 C 85 % 0,0 l/m 0,3 km/h (0 Bft) NW 315 3,3 C 3,6 C 2,1 km/h (1 Bft)
07.05.2012 04:36 5,6 C 85 % 0,0 l/m 0,3 km/h (0 Bft) N 360 3,3 C 3,6 C 0,0 km/h (0 Bft)
07.05.2012 04:38 5,6 C 85 % 0,0 l/m 0,3 km/h (0 Bft) N 360 3,3 C 3,6 C 0,0 km/h (0 Bft)
07.05.2012 04:40 5,5 C 85 % 0,0 l/m 0,2 km/h (0 Bft) NO 45 3,2 C 3,6 C 0,0 km/h (0 Bft)
07.05.2012 04:42 5,5 C 85 % 0,0 l/m 0,2 km/h (0 Bft) NO 45 3,2 C 3,6 C 0,0 km/h (0 Bft)
07.05.2012 04:44 5,5 C 85 % 0,0 l/m 0,0 km/h (0 Bft) O 90 3,2 C 3,6 C 0,0 km/h (0 Bft)
07.05.2012 04:46 5,5 C 85 % 0,0 l/m 0,0 km/h (0 Bft) SO 135 3,2 C 3,5 C 0,0 km/h (0 Bft)
07.05.2012 04:48 5,5 C 85 % 0,0 l/m 0,0 km/h (0 Bft) O 90 3,2 C 3,6 C 0,0 km/h (0 Bft)
07.05.2012 04:50 5,6 C 85 % 0,0 l/m 0,0 km/h (0 Bft) NO 45 3,3 C 3,6 C 0,0 km/h (0 Bft)
07.05.2012 04:52 5,6 C 86 % 0,0 l/m 0,0 km/h (0 Bft) NO 45 3,4 C 3,7 C 1,8 km/h (1 Bft)
07.05.2012 04:54 5,6 C 86 % 0,0 l/m 0,2 km/h (0 Bft) O-SO 112 3,4 C 3,8 C 1,8 km/h (1 Bft)
07.05.2012 04:56 5,6 C 86 % 0,0 l/m 0,2 km/h (0 Bft) S 180 3,4 C 3,8 C 0,0 km/h (0 Bft)
07.05.2012 04:58 5,6 C 86 % 0,0 l/m 0,2 km/h (0 Bft) W-SW 247 3,4 C 3,9 C 0,0 km/h (0 Bft)
07.05.2012 05:00 5,6 C 86 % 0,0 l/m 0,2 km/h (0 Bft) S-SO 157 3,4 C 4,0 C 0,0 km/h (0 Bft)
07.05.2012 05:02 5,6 C 86 % 0,0 l/m 0,2 km/h (0 Bft) O-SO 112 3,4 C 4,0 C 0,0 km/h (0 Bft)
07.05.2012 05:04 5,7 C 86 % 0,0 l/m 0,2 km/h (0 Bft) N-NO 22 3,5 C 4,0 C 2,1 km/h (1 Bft)
07.05.2012 05:06 5,6 C 86 % 0,0 l/m 0,2 km/h (0 Bft) O-NO 67 3,4 C 4,0 C 2,1 km/h (1 Bft)
07.05.2012 05:08 5,6 C 86 % 0,0 l/m 0,2 km/h (0 Bft) SO 135 3,4 C 4,1 C 1,9 km/h (1 Bft)
07.05.2012 05:10 5,6 C 86 % 0,0 l/m 0,3 km/h (0 Bft) N-NO 22 3,4 C 4,1 C 0,0 km/h (0 Bft)
07.05.2012 05:12 5,7 C 86 % 0,0 l/m 0,3 km/h (0 Bft) SO 135 3,5 C 4,2 C 1,8 km/h (1 Bft)
07.05.2012 05:14 5,7 C 86 % 0,0 l/m 0,3 km/h (0 Bft) NW 315 3,5 C 4,2 C 1,8 km/h (1 Bft)
07.05.2012 05:16 5,7 C 86 % 0,0 l/m 0,3 km/h (0 Bft) NW 315 3,5 C 4,2 C 0,0 km/h (0 Bft)
07.05.2012 05:18 5,7 C 86 % 0,0 l/m 0,5 km/h (0 Bft) S-SO 157 3,5 C 4,2 C 2,7 km/h (1 Bft)
07.05.2012 05:20 5,7 C 86 % 0,0 l/m 0,5 km/h (0 Bft) N 360 3,5 C 4,2 C 2,3 km/h (1 Bft)
07.05.2012 05:22 5,7 C 86 % 0,0 l/m 0,8 km/h (0 Bft) NO 45 3,5 C 4,2 C 0,0 km/h (0 Bft)
07.05.2012 05:24 5,7 C 86 % 0,0 l/m 0,6 km/h (0 Bft) W 270 3,5 C 4,2 C 1,8 km/h (1 Bft)
07.05.2012 05:26 5,7 C 86 % 0,0 l/m 0,6 km/h (0 Bft) W-SW 247 3,5 C 4,2 C 1,8 km/h (1 Bft)
07.05.2012 05:28 5,7 C 86 % 0,0 l/m 0,5 km/h (0 Bft) W-SW 247 3,5 C 4,2 C 0,0 km/h (0 Bft)
07.05.2012 05:30 5,7 C 86 % 0,0 l/m 0,3 km/h (0 Bft) N-NO 22 3,5 C 4,2 C 0,0 km/h (0 Bft)
07.05.2012 05:32 5,7 C 87 % 0,0 l/m 0,3 km/h (0 Bft) N 360 3,7 C 4,2 C 1,8 km/h (1 Bft)
07.05.2012 05:34 5,9 C 87 % 0,0 l/m 0,2 km/h (0 Bft) N 360 3,9 C 4,2 C 1,8 km/h (1 Bft)
07.05.2012 05:36 5,9 C 87 % 0,0 l/m 0,2 km/h (0 Bft) W-NW 292 3,9 C 4,3 C 0,0 km/h (0 Bft)
07.05.2012 05:38 5,9 C 87 % 0,0 l/m 0,2 km/h (0 Bft) SO 135 3,9 C 4,3 C 1,6 km/h (1 Bft)
07.05.2012 05:40 5,9 C 87 % 0,0 l/m 0,2 km/h (0 Bft) N-NO 22 3,9 C 4,4 C 1,6 km/h (1 Bft)
07.05.2012 05:42 5,9 C 87 % 0,0 l/m 0,0 km/h (0 Bft) N-NW 337 3,9 C 4,4 C 0,0 km/h (0 Bft)
07.05.2012 05:44 6,0 C 87 % 0,0 l/m 0,0 km/h (0 Bft) N-NO 22 4,0 C 4,5 C 0,0 km/h (0 Bft)
07.05.2012 05:46 6,0 C 87 % 0,0 l/m 0,0 km/h (0 Bft) N-NW 337 4,0 C 4,5 C 1,6 km/h (1 Bft)
07.05.2012 05:48 6,0 C 87 % 0,0 l/m 0,0 km/h (0 Bft) N-NO 22 4,0 C 4,5 C 1,6 km/h (1 Bft)
07.05.2012 05:50 6,1 C 87 % 0,0 l/m 0,0 km/h (0 Bft) O-SO 112 4,1 C 4,6 C 0,0 km/h (0 Bft)
07.05.2012 05:52 6,0 C 87 % 0,0 l/m 0,0 km/h (0 Bft) W 270 4,0 C 4,6 C 0,0 km/h (0 Bft)
07.05.2012 05:54 6,1 C 87 % 0,0 l/m 0,0 km/h (0 Bft) O-SO 112 4,1 C 4,7 C 0,0 km/h (0 Bft)
07.05.2012 05:56 6,1 C 87 % 0,0 l/m 0,0 km/h (0 Bft) O-SO 112 4,1 C 4,7 C 0,0 km/h (0 Bft)
07.05.2012 05:58 6,1 C 87 % 0,0 l/m 0,0 km/h (0 Bft) NO 45 4,1 C 4,8 C 0,0 km/h (0 Bft)
07.05.2012 06:00 6,3 C 87 % 0,0 l/m 0,0 km/h (0 Bft) S-SO 157 4,3 C 4,7 C 0,0 km/h (0 Bft)
07.05.2012 06:02 6,3 C 87 % 0,0 l/m 0,0 km/h (0 Bft) S 180 4,3 C 4,8 C 0,0 km/h (0 Bft)
07.05.2012 06:04 6,3 C 87 % 0,0 l/m 0,0 km/h (0 Bft) NO 45 4,3 C 4,8 C 0,0 km/h (0 Bft)
07.05.2012 06:06 6,3 C 87 % 0,0 l/m 0,0 km/h (0 Bft) W-SW 247 4,3 C 4,8 C 0,0 km/h (0 Bft)
07.05.2012 06:08 6,2 C 87 % 0,0 l/m 0,0 km/h (0 Bft) N-NW 337 4,2 C 5,0 C 0,0 km/h (0 Bft)
07.05.2012 06:10 6,3 C 87 % 0,0 l/m 0,0 km/h (0 Bft) N 360 4,3 C 5,0 C 0,0 km/h (0 Bft)
07.05.2012 06:12 6,3 C 87 % 0,0 l/m 0,0 km/h (0 Bft) N-NO 22 4,3 C 5,0 C 0,0 km/h (0 Bft)
07.05.2012 06:14 6,3 C 87 % 0,0 l/m 0,0 km/h (0 Bft) S 180 4,3 C 5,0 C 0,0 km/h (0 Bft)
07.05.2012 06:16 6,5 C 87 % 0,0 l/m 0,2 km/h (0 Bft) N-NW 337 4,5 C 5,0 C 0,0 km/h (0 Bft)
07.05.2012 06:18 6,5 C 87 % 0,0 l/m 0,2 km/h (0 Bft) N-NW 337 4,5 C 5,1 C 0,0 km/h (0 Bft)
07.05.2012 06:20 6,4 C 87 % 0,0 l/m 0,2 km/h (0 Bft) NO 45 4,4 C 5,2 C 0,0 km/h (0 Bft)
07.05.2012 06:22 6,4 C 87 % 0,0 l/m 0,2 km/h (0 Bft) N 360 4,4 C 5,2 C 0,0 km/h (0 Bft)
07.05.2012 06:24 6,5 C 87 % 0,0 l/m 0,2 km/h (0 Bft) NO 45 4,5 C 5,3 C 0,0 km/h (0 Bft)
07.05.2012 06:26 6,7 C 88 % 0,0 l/m 0,0 km/h (0 Bft) N-NO 22 4,9 C 5,3 C 0,0 km/h (0 Bft)
07.05.2012 06:28 6,7 C 88 % 0,0 l/m 0,2 km/h (0 Bft) N-NO 22 4,9 C 5,4 C 0,0 km/h (0 Bft)
07.05.2012 06:30 6,7 C 88 % 0,0 l/m 0,2 km/h (0 Bft) N-NO 22 4,9 C 5,4 C 0,0 km/h (0 Bft)
07.05.2012 06:32 6,8 C 87 % 0,0 l/m 0,3 km/h (0 Bft) N 360 4,8 C 5,6 C 2,4 km/h (1 Bft)
07.05.2012 06:34 6,9 C 87 % 0,0 l/m 0,6 km/h (0 Bft) O-NO 67 4,9 C 5,7 C 0,0 km/h (0 Bft)
07.05.2012 06:36 6,8 C 87 % 0,0 l/m 0,8 km/h (0 Bft) NO 45 4,8 C 5,8 C 2,1 km/h (1 Bft)
07.05.2012 06:38 6,9 C 87 % 0,0 l/m 1,0 km/h (0 Bft) N-NO 22 4,9 C 5,9 C 2,1 km/h (1 Bft)
07.05.2012 06:40 7,1 C 87 % 0,0 l/m 0,8 km/h (0 Bft) N 360 5,1 C 6,0 C 1,6 km/h (1 Bft)
07.05.2012 06:42 7,1 C 87 % 0,0 l/m 0,8 km/h (0 Bft) NO 45 5,1 C 6,1 C 1,9 km/h (1 Bft)
07.05.2012 06:44 7,1 C 87 % 0,0 l/m 1,0 km/h (0 Bft) NO 45 5,1 C 6,2 C 2,4 km/h (1 Bft)
07.05.2012 06:46 7,2 C 87 % 0,0 l/m 0,8 km/h (0 Bft) NO 45 5,2 C 6,2 C 2,4 km/h (1 Bft)
07.05.2012 06:48 7,2 C 87 % 0,0 l/m 0,8 km/h (0 Bft) N-NO 22 5,2 C 6,3 C 0,0 km/h (0 Bft)
07.05.2012 06:50 7,2 C 86 % 0,0 l/m 0,6 km/h (0 Bft) NO 45 5,0 C 6,3 C 0,0 km/h (0 Bft)
07.05.2012 06:52 7,3 C 87 % 0,0 l/m 0,6 km/h (0 Bft) N-NO 22 5,3 C 6,4 C 0,0 km/h (0 Bft)
07.05.2012 06:54 7,3 C 86 % 0,0 l/m 0,5 km/h (0 Bft) N-NW 337 5,1 C 6,5 C 0,0 km/h (0 Bft)
07.05.2012 06:56 7,5 C 86 % 0,0 l/m 0,5 km/h (0 Bft) N-NW 337 5,3 C 6,5 C 0,0 km/h (0 Bft)
07.05.2012 06:58 7,4 C 86 % 0,0 l/m 0,2 km/h (0 Bft) N-NO 22 5,2 C 6,7 C 0,0 km/h (0 Bft)
07.05.2012 07:00 7,5 C 86 % 0,0 l/m 0,2 km/h (0 Bft) NO 45 5,3 C 6,8 C 1,6 km/h (1 Bft)
07.05.2012 07:02 7,6 C 86 % 0,0 l/m 0,2 km/h (0 Bft) N-NO 22 5,4 C 6,8 C 1,6 km/h (1 Bft)
07.05.2012 07:04 7,7 C 86 % 0,0 l/m 0,2 km/h (0 Bft) N-NO 22 5,5 C 6,8 C 0,0 km/h (0 Bft)
07.05.2012 07:06 7,7 C 86 % 0,0 l/m 0,3 km/h (0 Bft) O 90 5,5 C 7,1 C 2,3 km/h (1 Bft)
07.05.2012 07:08 7,9 C 86 % 0,0 l/m 0,5 km/h (0 Bft) NO 45 5,7 C 7,1 C 2,7 km/h (1 Bft)
07.05.2012 07:10 7,8 C 85 % 0,0 l/m 0,8 km/h (0 Bft) N-NO 22 5,4 C 7,2 C 2,7 km/h (1 Bft)
07.05.2012 07:12 7,9 C 85 % 0,0 l/m 1,1 km/h (1 Bft) O 90 5,5 C 7,4 C 2,4 km/h (1 Bft)
07.05.2012 07:14 8,0 C 85 % 0,0 l/m 1,3 km/h (1 Bft) NO 45 5,6 C 7,4 C 2,4 km/h (1 Bft)
07.05.2012 07:16 8,1 C 85 % 0,0 l/m 1,4 km/h (1 Bft) O 90 5,7 C 7,5 C 2,4 km/h (1 Bft)
07.05.2012 07:18 8,0 C 85 % 0,0 l/m 1,4 km/h (1 Bft) W-NW 292 5,6 C 7,6 C 1,9 km/h (1 Bft)
07.05.2012 07:20 8,1 C 85 % 0,0 l/m 1,4 km/h (1 Bft) SO 135 5,7 C 7,7 C 2,6 km/h (1 Bft)
07.05.2012 07:22 8,3 C 84 % 0,0 l/m 1,4 km/h (1 Bft) NO 45 5,8 C 7,8 C 3,9 km/h (1 Bft)
07.05.2012 07:24 8,3 C 84 % 0,0 l/m 1,4 km/h (1 Bft) O 90 5,8 C 7,9 C 3,9 km/h (1 Bft)
07.05.2012 07:26 8,3 C 84 % 0,0 l/m 1,4 km/h (1 Bft) O-NO 67 5,8 C 8,0 C 0,0 km/h (0 Bft)
07.05.2012 07:28 8,4 C 84 % 0,0 l/m 1,1 km/h (1 Bft) N 360 5,9 C 8,0 C 4,5 km/h (1 Bft)
07.05.2012 07:30 8,4 C 84 % 0,0 l/m 1,3 km/h (1 Bft) N-NO 22 5,9 C 8,0 C 4,5 km/h (1 Bft)
07.05.2012 07:32 8,4 C 84 % 0,0 l/m 1,1 km/h (1 Bft) NO 45 5,9 C 8,1 C 2,3 km/h (1 Bft)
07.05.2012 07:34 8,5 C 84 % 0,0 l/m 1,0 km/h (0 Bft) O-NO 67 6,0 C 8,2 C 4,2 km/h (1 Bft)
07.05.2012 07:36 8,6 C 84 % 0,0 l/m 1,0 km/h (0 Bft) O 90 6,1 C 8,3 C 4,2 km/h (1 Bft)
07.05.2012 07:38 8,7 C 84 % 0,0 l/m 1,4 km/h (1 Bft) O-NO 67 6,2 C 8,4 C 2,9 km/h (1 Bft)
07.05.2012 07:40 8,7 C 84 % 0,0 l/m 1,1 km/h (1 Bft) N-NO 22 6,2 C 8,5 C 2,7 km/h (1 Bft)
07.05.2012 07:42 8,8 C 83 % 0,0 l/m 1,0 km/h (0 Bft) NO 45 6,1 C 8,6 C 1,6 km/h (1 Bft)
07.05.2012 07:44 8,9 C 83 % 0,0 l/m 1,0 km/h (0 Bft) O-NO 67 6,2 C 8,7 C 1,8 km/h (1 Bft)
07.05.2012 07:46 8,8 C 83 % 0,0 l/m 0,8 km/h (0 Bft) O 90 6,1 C 8,7 C 1,8 km/h (1 Bft)
07.05.2012 07:48 8,8 C 83 % 0,0 l/m 0,8 km/h (0 Bft) O-SO 112 6,1 C 8,7 C 2,1 km/h (1 Bft)
07.05.2012 07:50 8,9 C 83 % 0,0 l/m 0,8 km/h (0 Bft) O-SO 112 6,2 C 8,7 C 2,1 km/h (1 Bft)
07.05.2012 07:52 8,9 C 83 % 0,0 l/m 0,6 km/h (0 Bft) N-NO 22 6,2 C 8,8 C 0,0 km/h (0 Bft)
07.05.2012 07:54 9,1 C 83 % 0,0 l/m 0,5 km/h (0 Bft) N-NO 22 6,4 C 8,8 C 0,0 km/h (0 Bft)
07.05.2012 07:56 9,1 C 83 % 0,0 l/m 0,5 km/h (0 Bft) S-SO 157 6,4 C 8,9 C 0,0 km/h (0 Bft)
07.05.2012 07:58 9,2 C 83 % 0,0 l/m 0,3 km/h (0 Bft) O-SO 112 6,5 C 8,9 C 0,0 km/h (0 Bft)
07.05.2012 08:00 9,3 C 83 % 0,0 l/m 0,2 km/h (0 Bft) NO 45 6,6 C 9,0 C 1,8 km/h (1 Bft)
07.05.2012 08:02 9,2 C 82 % 0,0 l/m 0,5 km/h (0 Bft) S-SO 157 6,3 C 9,1 C 1,8 km/h (1 Bft)
07.05.2012 08:04 9,4 C 82 % 0,0 l/m 0,5 km/h (0 Bft) O-SO 112 6,5 C 9,2 C 0,0 km/h (0 Bft)
07.05.2012 08:06 9,5 C 82 % 0,0 l/m 1,1 km/h (1 Bft) O-SO 112 6,6 C 9,2 C 4,5 km/h (1 Bft)
07.05.2012 08:08 9,5 C 82 % 0,0 l/m 1,4 km/h (1 Bft) O 90 6,6 C 9,3 C 4,5 km/h (1 Bft)
07.05.2012 08:10 9,4 C 82 % 0,0 l/m 1,6 km/h (1 Bft) O-NO 67 6,5 C 9,3 C 2,6 km/h (1 Bft)
07.05.2012 08:12 9,5 C 82 % 0,0 l/m 1,8 km/h (1 Bft) O-SO 112 6,6 C 9,4 C 5,1 km/h (1 Bft)
07.05.2012 08:14 9,6 C 81 % 0,0 l/m 1,9 km/h (1 Bft) O 90 6,5 C 9,4 C 5,1 km/h (1 Bft)
07.05.2012 08:16 9,7 C 81 % 0,0 l/m 1,9 km/h (1 Bft) N-NO 22 6,6 C 9,4 C 0,0 km/h (0 Bft)
07.05.2012 08:18 9,6 C 81 % 0,0 l/m 1,3 km/h (1 Bft) NW 315 6,5 C 9,5 C 0,0 km/h (0 Bft)
07.05.2012 08:20 9,6 C 81 % 0,0 l/m 1,1 km/h (1 Bft) O-NO 67 6,5 C 9,5 C 0,0 km/h (0 Bft)
07.05.2012 08:22 9,7 C 81 % 0,0 l/m 1,1 km/h (1 Bft) S 180 6,6 C 9,6 C 4,8 km/h (1 Bft)
07.05.2012 08:24 9,7 C 81 % 0,0 l/m 0,6 km/h (0 Bft) O 90 6,6 C 9,6 C 4,8 km/h (1 Bft)
07.05.2012 08:26 9,7 C 80 % 0,0 l/m 0,5 km/h (0 Bft) NO 45 6,4 C 9,6 C 0,0 km/h (0 Bft)
07.05.2012 08:28 9,9 C 80 % 0,0 l/m 0,6 km/h (0 Bft) O-SO 112 6,6 C 9,7 C 2,9 km/h (1 Bft)
07.05.2012 08:30 9,8 C 81 % 0,0 l/m 0,8 km/h (0 Bft) O-SO 112 6,7 C 9,8 C 2,9 km/h (1 Bft)
07.05.2012 08:32 9,9 C 81 % 0,0 l/m 1,1 km/h (1 Bft) O-SO 112 6,8 C 9,8 C 3,5 km/h (1 Bft)
07.05.2012 08:34 9,9 C 80 % 0,0 l/m 1,1 km/h (1 Bft) O 90 6,6 C 9,8 C 3,5 km/h (1 Bft)
07.05.2012 08:36 10,0 C 80 % 0,0 l/m 1,3 km/h (1 Bft) O 90 6,7 C 9,8 C 2,6 km/h (1 Bft)
07.05.2012 08:38 10,0 C 80 % 0,0 l/m 1,6 km/h (1 Bft) S-SO 157 6,7 C 9,9 C 2,3 km/h (1 Bft)
07.05.2012 08:40 10,0 C 80 % 0,0 l/m 1,8 km/h (1 Bft) O 90 6,7 C 9,9 C 3,4 km/h (1 Bft)
07.05.2012 08:42 10,1 C 80 % 0,0 l/m 2,1 km/h (1 Bft) SO 135 6,8 C 9,9 C 4,0 km/h (1 Bft)
07.05.2012 08:44 10,1 C 79 % 0,0 l/m 2,3 km/h (1 Bft) NO 45 6,6 C 10,0 C 4,0 km/h (1 Bft)
07.05.2012 08:46 10,3 C 79 % 0,0 l/m 2,6 km/h (1 Bft) O-SO 112 6,8 C 10,0 C 6,0 km/h (2 Bft)
07.05.2012 08:48 10,3 C 79 % 0,0 l/m 2,7 km/h (1 Bft) SO 135 6,8 C 10,0 C 6,0 km/h (2 Bft)
07.05.2012 08:50 10,3 C 79 % 0,0 l/m 3,2 km/h (1 Bft) SO 135 6,8 C 10,0 C 6,0 km/h (2 Bft)
07.05.2012 08:52 10,3 C 79 % 0,0 l/m 3,4 km/h (1 Bft) O-SO 112 6,8 C 10,0 C 6,4 km/h (2 Bft)
07.05.2012 08:54 10,4 C 79 % 0,0 l/m 3,5 km/h (1 Bft) SO 135 6,9 C 10,1 C 6,4 km/h (2 Bft)
07.05.2012 08:56 10,5 C 79 % 0,0 l/m 3,7 km/h (1 Bft) O-SO 112 7,0 C 10,1 C 6,1 km/h (2 Bft)
07.05.2012 08:58 10,4 C 79 % 0,0 l/m 3,7 km/h (1 Bft) O-SO 112 6,9 C 10,2 C 6,1 km/h (2 Bft)
07.05.2012 09:00 10,5 C 79 % 0,0 l/m 3,9 km/h (1 Bft) SO 135 7,0 C 10,2 C 5,1 km/h (1 Bft)
07.05.2012 09:02 10,6 C 78 % 0,0 l/m 3,7 km/h (1 Bft) SO 135 6,9 C 10,3 C 5,1 km/h (1 Bft)
07.05.2012 09:04 10,7 C 78 % 0,0 l/m 3,4 km/h (1 Bft) S 180 7,0 C 10,3 C 3,7 km/h (1 Bft)
07.05.2012 09:06 10,7 C 78 % 0,0 l/m 3,7 km/h (1 Bft) SO 135 7,0 C 10,4 C 5,5 km/h (1 Bft)
07.05.2012 09:08 10,8 C 78 % 0,0 l/m 3,7 km/h (1 Bft) SO 135 7,1 C 10,5 C 5,5 km/h (1 Bft)
07.05.2012 09:10 10,9 C 77 % 0,0 l/m 3,9 km/h (1 Bft) SO 135 7,0 C 10,5 C 5,1 km/h (1 Bft)
07.05.2012 09:12 10,8 C 77 % 0,0 l/m 3,9 km/h (1 Bft) S-SO 157 6,9 C 10,6 C 4,2 km/h (1 Bft)
07.05.2012 09:14 10,9 C 77 % 0,0 l/m 3,9 km/h (1 Bft) S-SW 202 7,0 C 10,7 C 4,8 km/h (1 Bft)
07.05.2012 09:16 11,1 C 76 % 0,0 l/m 4,2 km/h (1 Bft) SO 135 7,0 C 10,8 C 8,5 km/h (2 Bft)
07.05.2012 09:18 11,1 C 76 % 0,0 l/m 4,2 km/h (1 Bft) S-SW 202 7,0 C 10,9 C 8,5 km/h (2 Bft)
07.05.2012 09:20 11,2 C 76 % 0,0 l/m 3,9 km/h (1 Bft) S-SO 157 7,1 C 11,0 C 3,9 km/h (1 Bft)
07.05.2012 09:22 11,2 C 76 % 0,0 l/m 3,7 km/h (1 Bft) O-SO 112 7,1 C 11,1 C 4,3 km/h (1 Bft)
07.05.2012 09:24 11,5 C 76 % 0,0 l/m 4,0 km/h (1 Bft) SO 135 7,4 C 11,2 C 8,5 km/h (2 Bft)
07.05.2012 09:26 11,6 C 75 % 0,0 l/m 4,0 km/h (1 Bft) O-SO 112 7,3 C 11,4 C 8,5 km/h (2 Bft)
07.05.2012 09:28 11,6 C 75 % 0,0 l/m 3,9 km/h (1 Bft) SO 135 7,3 C 11,6 C 8,4 km/h (2 Bft)
07.05.2012 09:30 11,9 C 74 % 0,0 l/m 4,0 km/h (1 Bft) SO 135 7,4 C 11,7 C 8,4 km/h (2 Bft)
07.05.2012 09:32 12,1 C 74 % 0,0 l/m 4,2 km/h (1 Bft) O-SO 112 7,6 C 11,9 C 7,2 km/h (2 Bft)
07.05.2012 09:34 12,3 C 74 % 0,0 l/m 4,2 km/h (1 Bft) S-SO 157 7,8 C 12,2 C 6,6 km/h (2 Bft)
07.05.2012 09:36 12,7 C 73 % 0,0 l/m 4,5 km/h (1 Bft) S 180 8,0 C 12,4 C 6,1 km/h (2 Bft)
07.05.2012 09:38 12,8 C 73 % 0,0 l/m 4,5 km/h (1 Bft) S-SO 157 8,1 C 13,0 C 6,1 km/h (2 Bft)
07.05.2012 09:40 13,0 C 73 % 0,0 l/m 4,5 km/h (1 Bft) O-SO 112 8,3 C 13,6 C 7,4 km/h (2 Bft)
07.05.2012 09:42 13,2 C 72 % 0,0 l/m 4,5 km/h (1 Bft) S 180 8,3 C 13,8 C 7,4 km/h (2 Bft)
07.05.2012 09:44 13,5 C 71 % 0,0 l/m 4,7 km/h (1 Bft) S 180 8,3 C 14,3 C 5,3 km/h (1 Bft)
07.05.2012 09:46 13,5 C 70 % 0,0 l/m 4,8 km/h (1 Bft) S 180 8,1 C 14,3 C 12,1 km/h (2 Bft)
07.05.2012 09:48 13,6 C 68 % 0,0 l/m 5,1 km/h (1 Bft) S-SW 202 7,8 C 14,6 C 7,9 km/h (2 Bft)
07.05.2012 09:50 13,5 C 68 % 0,0 l/m 5,8 km/h (2 Bft) O-SO 112 7,7 C 14,6 C 7,9 km/h (2 Bft)
07.05.2012 09:52 13,5 C 69 % 0,0 l/m 6,0 km/h (2 Bft) SO 135 7,9 C 14,3 C 7,4 km/h (2 Bft)
07.05.2012 09:54 13,5 C 69 % 0,0 l/m 6,1 km/h (2 Bft) S-SO 157 7,9 C 14,2 C 10,0 km/h (2 Bft)
07.05.2012 09:56 13,6 C 69 % 0,0 l/m 6,0 km/h (2 Bft) S 180 8,0 C 14,1 C 10,0 km/h (2 Bft)
07.05.2012 09:58 13,6 C 68 % 0,0 l/m 6,0 km/h (2 Bft) SO 135 7,8 C 14,0 C 7,9 km/h (2 Bft)
07.05.2012 10:00 13,6 C 68 % 0,0 l/m 5,8 km/h (2 Bft) S 180 7,8 C 13,9 C 9,3 km/h (2 Bft)
07.05.2012 10:02 13,6 C 68 % 0,0 l/m 5,5 km/h (1 Bft) S 180 7,8 C 13,8 C 9,3 km/h (2 Bft)
07.05.2012 10:04 13,6 C 67 % 0,0 l/m 5,5 km/h (1 Bft) SO 135 7,6 C 13,7 C 6,8 km/h (2 Bft)
07.05.2012 10:06 13,9 C 67 % 0,0 l/m 5,3 km/h (1 Bft) S 180 7,9 C 13,7 C 6,9 km/h (2 Bft)
07.05.2012 10:08 13,8 C 68 % 0,0 l/m 5,1 km/h (1 Bft) O-SO 112 8,0 C 13,9 C 6,9 km/h (2 Bft)
07.05.2012 10:10 14,2 C 68 % 0,0 l/m 5,1 km/h (1 Bft) SO 135 8,4 C 14,1 C 8,0 km/h (2 Bft)
07.05.2012 10:12 14,6 C 66 % 0,0 l/m 5,3 km/h (1 Bft) S-SO 157 8,3 C 14,3 C 8,0 km/h (2 Bft)
07.05.2012 10:14 14,6 C 65 % 0,0 l/m 5,6 km/h (1 Bft) S-SO 157 8,1 C 14,6 C 10,5 km/h (2 Bft)
07.05.2012 10:16 14,7 C 65 % 0,0 l/m 6,3 km/h (2 Bft) S 180 8,2 C 14,7 C 10,5 km/h (2 Bft)
07.05.2012 10:18 14,4 C 64 % 0,0 l/m 6,6 km/h (2 Bft) SO 135 7,7 C 14,8 C 8,7 km/h (2 Bft)
07.05.2012 10:20 14,4 C 65 % 0,0 l/m 6,8 km/h (2 Bft) SO 135 7,9 C 14,5 C 6,6 km/h (2 Bft)
07.05.2012 10:22 14,5 C 65 % 0,0 l/m 6,9 km/h (2 Bft) SO 135 8,0 C 14,3 C 8,5 km/h (2 Bft)
07.05.2012 10:24 14,4 C 65 % 0,0 l/m 6,4 km/h (2 Bft) S 180 7,9 C 14,5 C 8,5 km/h (2 Bft)
07.05.2012 10:26 15,0 C 65 % 0,0 l/m 6,1 km/h (2 Bft) S 180 8,5 C 14,6 C 6,9 km/h (2 Bft)
07.05.2012 10:28 15,0 C 64 % 0,0 l/m 5,8 km/h (2 Bft) S 180 8,2 C 15,1 C 5,1 km/h (1 Bft)
07.05.2012 10:30 15,8 C 63 % 0,0 l/m 5,3 km/h (1 Bft) N 360 8,8 C 15,5 C 5,1 km/h (1 Bft)
07.05.2012 10:32 16,3 C 62 % 0,0 l/m 5,5 km/h (1 Bft) SO 135 9,0 C 15,9 C 7,6 km/h (2 Bft)
07.05.2012 10:34 16,7 C 60 % 0,0 l/m 5,6 km/h (1 Bft) O-SO 112 8,9 C 16,4 C 7,6 km/h (2 Bft)
07.05.2012 10:36 16,2 C 60 % 0,0 l/m 5,8 km/h (2 Bft) S 180 8,4 C 16,9 C 14,0 km/h (3 Bft)
07.05.2012 10:38 16,8 C 59 % 0,0 l/m 6,3 km/h (2 Bft) S-SO 157 8,7 C 16,9 C 6,4 km/h (2 Bft)
07.05.2012 10:40 16,3 C 59 % 0,0 l/m 6,3 km/h (2 Bft) SO 135 8,3 C 16,8 C 7,1 km/h (2 Bft)
07.05.2012 10:42 16,0 C 59 % 0,0 l/m 6,6 km/h (2 Bft) S-SO 157 8,0 C 16,5 C 7,6 km/h (2 Bft)
07.05.2012 10:44 15,8 C 58 % 0,0 l/m 6,1 km/h (2 Bft) S-SO 157 7,6 C 16,1 C 8,7 km/h (2 Bft)
07.05.2012 10:46 15,6 C 59 % 0,0 l/m 6,4 km/h (2 Bft) SO 135 7,6 C 15,6 C 8,7 km/h (2 Bft)
07.05.2012 10:48 15,3 C 58 % 0,0 l/m 6,8 km/h (2 Bft) S-SO 157 7,1 C 15,0 C 11,4 km/h (2 Bft)
07.05.2012 10:50 15,2 C 57 % 0,0 l/m 7,1 km/h (2 Bft) S 180 6,7 C 14,3 C 11,4 km/h (2 Bft)
07.05.2012 10:52 15,0 C 57 % 0,0 l/m 7,2 km/h (2 Bft) O-SO 112 6,6 C 13,9 C 9,7 km/h (2 Bft)
07.05.2012 10:54 15,0 C 58 % 0,0 l/m 7,2 km/h (2 Bft) O-SO 112 6,8 C 13,6 C 9,7 km/h (2 Bft)
07.05.2012 10:56 15,1 C 58 % 0,0 l/m 7,4 km/h (2 Bft) SO 135 6,9 C 13,5 C 14,2 km/h (3 Bft)
07.05.2012 10:58 15,0 C 59 % 0,0 l/m 6,8 km/h (2 Bft) S 180 7,1 C 13,8 C 9,0 km/h (2 Bft)
07.05.2012 11:00 15,1 C 59 % 0,0 l/m 6,6 km/h (2 Bft) S 180 7,1 C 14,0 C 8,7 km/h (2 Bft)
07.05.2012 11:02 15,1 C 59 % 0,0 l/m 6,6 km/h (2 Bft) S 180 7,1 C 14,0 C 11,9 km/h (2 Bft)
07.05.2012 11:04 15,1 C 59 % 0,0 l/m 6,6 km/h (2 Bft) SO 135 7,1 C 14,0 C 11,9 km/h (2 Bft)
07.05.2012 11:06 15,1 C 59 % 0,0 l/m 7,2 km/h (2 Bft) O-SO 112 7,1 C 13,3 C 8,7 km/h (2 Bft)
07.05.2012 11:08 15,1 C 59 % 0,0 l/m 7,6 km/h (2 Bft) O-SO 112 7,1 C 12,9 C 11,3 km/h (2 Bft)
07.05.2012 11:10 15,1 C 59 % 0,0 l/m 8,0 km/h (2 Bft) SO 135 7,1 C 12,6 C 12,9 km/h (3 Bft)
07.05.2012 11:12 15,1 C 59 % 0,0 l/m 8,4 km/h (2 Bft) S-SO 157 7,1 C 12,3 C 12,9 km/h (3 Bft)
07.05.2012 11:14 15,0 C 59 % 0,0 l/m 8,7 km/h (2 Bft) O-SO 112 7,1 C 11,9 C 9,0 km/h (2 Bft)
07.05.2012 11:16 14,9 C 59 % 0,0 l/m 8,0 km/h (2 Bft) O-SO 112 7,0 C 12,4 C 6,3 km/h (2 Bft)
07.05.2012 11:18 15,1 C 59 % 0,0 l/m 7,7 km/h (2 Bft) SO 135 7,1 C 12,6 C 8,7 km/h (2 Bft)
07.05.2012 11:20 15,1 C 59 % 0,0 l/m 7,7 km/h (2 Bft) SO 135 7,1 C 12,6 C 8,7 km/h (2 Bft)
07.05.2012 11:22 15,0 C 59 % 0,0 l/m 6,3 km/h (2 Bft) SO 135 7,1 C 14,0 C 8,7 km/h (2 Bft)
07.05.2012 11:24 15,1 C 60 % 0,0 l/m 5,8 km/h (2 Bft) SO 135 7,4 C 14,1 C 9,8 km/h (2 Bft)
07.05.2012 11:26 15,2 C 60 % 0,0 l/m 5,6 km/h (1 Bft) O-SO 112 7,5 C 14,2 C 9,8 km/h (2 Bft)
07.05.2012 11:28 15,5 C 59 % 0,0 l/m 5,8 km/h (2 Bft) O-SO 112 7,5 C 14,3 C 6,3 km/h (2 Bft)
07.05.2012 11:30 15,9 C 58 % 0,0 l/m 6,1 km/h (2 Bft) O-SO 112 7,6 C 14,4 C 6,3 km/h (2 Bft)
07.05.2012 11:32 15,6 C 59 % 0,0 l/m 6,0 km/h (2 Bft) O-SO 112 7,6 C 14,6 C 7,4 km/h (2 Bft)
07.05.2012 11:34 16,1 C 59 % 0,0 l/m 5,6 km/h (1 Bft) SO 135 8,1 C 14,9 C 7,4 km/h (2 Bft)
07.05.2012 11:36 16,3 C 57 % 0,0 l/m 5,3 km/h (1 Bft) O-SO 112 7,8 C 15,3 C 4,8 km/h (1 Bft)
07.05.2012 11:38 16,3 C 57 % 0,0 l/m 5,0 km/h (1 Bft) S 180 7,8 C 15,4 C 3,4 km/h (1 Bft)
07.05.2012 11:40 16,1 C 56 % 0,0 l/m 3,9 km/h (1 Bft) W-SW 247 7,3 C 15,7 C 3,1 km/h (1 Bft)
07.05.2012 11:42 15,9 C 57 % 0,0 l/m 3,7 km/h (1 Bft) S 180 7,4 C 15,7 C 3,5 km/h (1 Bft)
07.05.2012 11:44 15,7 C 58 % 0,0 l/m 3,5 km/h (1 Bft) S 180 7,5 C 15,7 C 4,2 km/h (1 Bft)
07.05.2012 11:46 15,5 C 56 % 0,0 l/m 4,5 km/h (1 Bft) W-SW 247 6,8 C 15,4 C 9,0 km/h (2 Bft)
07.05.2012 11:48 15,1 C 58 % 0,0 l/m 4,7 km/h (1 Bft) S 180 6,9 C 15,1 C 9,0 km/h (2 Bft)
07.05.2012 11:50 15,1 C 58 % 0,0 l/m 4,8 km/h (1 Bft) W 270 6,9 C 14,8 C 6,9 km/h (2 Bft)
07.05.2012 11:52 15,1 C 58 % 0,0 l/m 4,8 km/h (1 Bft) SW 225 6,9 C 14,7 C 6,9 km/h (2 Bft)
07.05.2012 11:54 15,9 C 56 % 0,0 l/m 5,1 km/h (1 Bft) W-SW 247 7,1 C 14,6 C 5,8 km/h (2 Bft)
07.05.2012 11:56 16,0 C 57 % 0,0 l/m 4,5 km/h (1 Bft) W-SW 247 7,5 C 15,0 C 4,7 km/h (1 Bft)
07.05.2012 11:58 16,7 C 56 % 0,0 l/m 3,7 km/h (1 Bft) S-SW 202 7,9 C 15,3 C 5,0 km/h (1 Bft)
07.05.2012 12:00 17,1 C 55 % 0,0 l/m 3,5 km/h (1 Bft) N-NO 22 8,0 C 15,7 C 7,2 km/h (2 Bft)
07.05.2012 12:02 17,2 C 54 % 0,0 l/m 3,9 km/h (1 Bft) W-NW 292 7,8 C 16,1 C 7,2 km/h (2 Bft)
07.05.2012 12:04 17,6 C 54 % 0,0 l/m 3,7 km/h (1 Bft) W-SW 247 8,2 C 16,4 C 5,8 km/h (2 Bft)
07.05.2012 12:06 17,7 C 53 % 0,0 l/m 4,0 km/h (1 Bft) W 270 8,0 C 16,5 C 6,1 km/h (2 Bft)
07.05.2012 12:08 17,5 C 52 % 0,0 l/m 4,3 km/h (1 Bft) W-NW 292 7,5 C 16,7 C 6,1 km/h (2 Bft)
07.05.2012 12:10 17,4 C 52 % 0,0 l/m 4,5 km/h (1 Bft) S 180 7,4 C 16,7 C 4,2 km/h (1 Bft)
07.05.2012 12:12 17,2 C 52 % 0,0 l/m 4,7 km/h (1 Bft) W-NW 292 7,3 C 16,6 C 5,5 km/h (1 Bft)
07.05.2012 12:14 16,5 C 51 % 0,0 l/m 5,1 km/h (1 Bft) W 270 6,3 C 16,3 C 7,7 km/h (2 Bft)
07.05.2012 12:16 16,1 C 52 % 0,0 l/m 5,0 km/h (1 Bft) W-NW 292 6,2 C 16,0 C 7,7 km/h (2 Bft)
07.05.2012 12:18 16,8 C 53 % 0,0 l/m 4,3 km/h (1 Bft) W-NW 292 7,2 C 15,7 C 3,2 km/h (1 Bft)
07.05.2012 12:20 16,9 C 54 % 0,0 l/m 4,5 km/h (1 Bft) N 360 7,5 C 15,8 C 10,5 km/h (2 Bft)
07.05.2012 12:22 17,2 C 55 % 0,0 l/m 5,1 km/h (1 Bft) S 180 8,1 C 15,9 C 10,5 km/h (2 Bft)
07.05.2012 12:24 16,8 C 53 % 0,0 l/m 5,1 km/h (1 Bft) W-SW 247 7,2 C 15,9 C 8,2 km/h (2 Bft)
07.05.2012 12:26 17,7 C 53 % 0,0 l/m 4,8 km/h (1 Bft) S-SW 202 8,0 C 15,9 C 15,6 km/h (3 Bft)
07.05.2012 12:28 17,9 C 55 % 0,0 l/m 5,1 km/h (1 Bft) S-SO 157 8,7 C 15,9 C 7,7 km/h (2 Bft)
07.05.2012 12:30 18,3 C 54 % 0,0 l/m 5,5 km/h (1 Bft) S 180 8,8 C 16,2 C 9,3 km/h (2 Bft)
07.05.2012 12:32 18,6 C 51 % 0,0 l/m 5,5 km/h (1 Bft) S 180 8,3 C 16,3 C 9,3 km/h (2 Bft)
07.05.2012 12:34 19,1 C 52 % 0,0 l/m 5,1 km/h (1 Bft) W-NW 292 9,0 C 16,3 C 11,3 km/h (2 Bft)
07.05.2012 12:36 19,2 C 53 % 0,0 l/m 5,0 km/h (1 Bft) S 180 9,4 C 16,5 C 11,3 km/h (2 Bft)
07.05.2012 12:38 18,9 C 50 % 0,0 l/m 4,8 km/h (1 Bft) SO 135 8,2 C 16,6 C 7,7 km/h (2 Bft)
07.05.2012 12:40 18,4 C 51 % 0,0 l/m 4,3 km/h (1 Bft) S-SO 157 8,1 C 16,7 C 4,3 km/h (1 Bft)
07.05.2012 12:42 18,1 C 50 % 0,0 l/m 3,9 km/h (1 Bft) W 270 7,5 C 16,7 C 5,1 km/h (1 Bft)
07.05.2012 12:44 17,9 C 49 % 0,0 l/m 3,4 km/h (1 Bft) N-NW 337 7,0 C 16,5 C 5,1 km/h (1 Bft)
07.05.2012 12:46 18,4 C 48 % 0,0 l/m 2,9 km/h (1 Bft) W 270 7,2 C 16,5 C 5,3 km/h (1 Bft)
07.05.2012 12:48 17,6 C 48 % 0,0 l/m 3,2 km/h (1 Bft) W 270 6,5 C 16,6 C 5,3 km/h (1 Bft)
07.05.2012 12:50 17,8 C 49 % 0,0 l/m 3,1 km/h (1 Bft) W-NW 292 6,9 C 16,6 C 3,2 km/h (1 Bft)
07.05.2012 12:52 17,6 C 50 % 0,0 l/m 2,9 km/h (1 Bft) W 270 7,1 C 16,7 C 5,1 km/h (1 Bft)
07.05.2012 12:54 17,4 C 49 % 0,0 l/m 2,9 km/h (1 Bft) SW 225 6,6 C 16,7 C 5,1 km/h (1 Bft)
07.05.2012 12:56 17,3 C 50 % 0,0 l/m 2,9 km/h (1 Bft) S-SW 202 6,8 C 16,7 C 6,0 km/h (2 Bft)
07.05.2012 12:58 17,3 C 49 % 0,0 l/m 2,6 km/h (1 Bft) O-SO 112 6,5 C 16,7 C 6,0 km/h (2 Bft)
07.05.2012 13:00 17,2 C 51 % 0,0 l/m 3,1 km/h (1 Bft) SO 135 7,0 C 16,5 C 5,8 km/h (2 Bft)
07.05.2012 13:02 17,0 C 51 % 0,0 l/m 3,4 km/h (1 Bft) S-SO 157 6,8 C 16,4 C 4,8 km/h (1 Bft)
07.05.2012 13:04 16,9 C 50 % 0,0 l/m 3,7 km/h (1 Bft) NO 45 6,4 C 16,1 C 6,3 km/h (2 Bft)
07.05.2012 13:06 16,8 C 52 % 0,0 l/m 4,5 km/h (1 Bft) S 180 6,9 C 15,9 C 12,1 km/h (2 Bft)
07.05.2012 13:08 16,5 C 53 % 0,0 l/m 5,6 km/h (1 Bft) O-SO 112 6,9 C 15,5 C 12,1 km/h (2 Bft)
07.05.2012 13:10 16,3 C 54 % 0,0 l/m 6,3 km/h (2 Bft) SW 225 7,0 C 15,0 C 9,3 km/h (2 Bft)
07.05.2012 13:12 16,0 C 55 % 0,0 l/m 6,4 km/h (2 Bft) S-SO 157 7,0 C 14,6 C 9,3 km/h (2 Bft)
07.05.2012 13:14 15,6 C 55 % 0,0 l/m 7,4 km/h (2 Bft) S-SO 157 6,6 C 13,3 C 10,5 km/h (2 Bft)
07.05.2012 13:16 15,5 C 55 % 0,0 l/m 7,9 km/h (2 Bft) SO 135 6,5 C 12,5 C 15,8 km/h (3 Bft)
07.05.2012 13:18 15,2 C 56 % 0,0 l/m 7,6 km/h (2 Bft) S 180 6,5 C 12,3 C 11,3 km/h (2 Bft)
07.05.2012 13:20 15,1 C 57 % 0,0 l/m 7,6 km/h (2 Bft) SO 135 6,6 C 11,9 C 10,1 km/h (2 Bft)
07.05.2012 13:22 14,8 C 57 % 0,0 l/m 7,9 km/h (2 Bft) O-SO 112 6,4 C 11,4 C 10,1 km/h (2 Bft)
07.05.2012 13:24 14,7 C 58 % 0,0 l/m 8,5 km/h (2 Bft) SO 135 6,5 C 10,6 C 10,0 km/h (2 Bft)
07.05.2012 13:26 14,5 C 58 % 0,0 l/m 8,5 km/h (2 Bft) O-SO 112 6,3 C 10,2 C 16,6 km/h (3 Bft)
07.05.2012 13:28 14,3 C 58 % 0,0 l/m 8,5 km/h (2 Bft) S 180 6,2 C 10,1 C 12,6 km/h (3 Bft)
07.05.2012 13:30 14,3 C 58 % 0,0 l/m 8,7 km/h (2 Bft) SO 135 6,2 C 9,7 C 7,4 km/h (2 Bft)
07.05.2012 13:32 14,2 C 58 % 0,0 l/m 8,7 km/h (2 Bft) S-SW 202 6,1 C 9,6 C 8,0 km/h (2 Bft)
07.05.2012 13:34 14,2 C 58 % 0,0 l/m 8,2 km/h (2 Bft) NO 45 6,1 C 10,0 C 8,4 km/h (2 Bft)
07.05.2012 13:36 14,2 C 59 % 0,0 l/m 8,0 km/h (2 Bft) O 90 6,3 C 10,1 C 8,4 km/h (2 Bft)
07.05.2012 13:38 14,3 C 59 % 0,0 l/m 7,2 km/h (2 Bft) O 90 6,4 C 10,8 C 5,1 km/h (1 Bft)
07.05.2012 13:40 14,4 C 60 % 0,0 l/m 7,7 km/h (2 Bft) O-SO 112 6,7 C 10,4 C 7,2 km/h (2 Bft)
07.05.2012 13:42 14,4 C 60 % 0,0 l/m 7,2 km/h (2 Bft) S 180 6,7 C 10,6 C 7,9 km/h (2 Bft)
07.05.2012 13:44 14,4 C 61 % 0,0 l/m 7,2 km/h (2 Bft) SO 135 7,0 C 10,6 C 8,2 km/h (2 Bft)
07.05.2012 13:46 14,5 C 61 % 0,0 l/m 7,1 km/h (2 Bft) O-SO 112 7,1 C 10,6 C 14,3 km/h (3 Bft)
07.05.2012 13:48 14,5 C 61 % 0,0 l/m 7,2 km/h (2 Bft) SO 135 7,1 C 10,4 C 14,3 km/h (3 Bft)
07.05.2012 13:50 14,7 C 61 % 0,0 l/m 7,6 km/h (2 Bft) O 90 7,3 C 10,3 C 14,8 km/h (3 Bft)
07.05.2012 13:52 14,6 C 60 % 0,0 l/m 8,2 km/h (2 Bft) O-SO 112 6,9 C 10,0 C 14,8 km/h (3 Bft)
07.05.2012 13:54 14,7 C 60 % 0,0 l/m 8,0 km/h (2 Bft) O-SO 112 7,0 C 10,3 C 13,8 km/h (3 Bft)
07.05.2012 13:56 14,9 C 60 % 0,0 l/m 7,9 km/h (2 Bft) O-SO 112 7,2 C 10,7 C 11,6 km/h (2 Bft)
07.05.2012 13:58 15,2 C 58 % 0,0 l/m 7,7 km/h (2 Bft) O-SO 112 7,0 C 11,3 C 11,6 km/h (2 Bft)
07.05.2012 14:00 15,1 C 58 % 0,0 l/m 8,0 km/h (2 Bft) SO 135 6,9 C 11,5 C 10,0 km/h (2 Bft)
07.05.2012 14:02 15,1 C 58 % 0,0 l/m 7,2 km/h (2 Bft) S-SW 202 6,9 C 12,4 C 9,8 km/h (2 Bft)
07.05.2012 14:04 15,1 C 59 % 0,0 l/m 6,4 km/h (2 Bft) S 180 7,1 C 13,2 C 9,8 km/h (2 Bft)
07.05.2012 14:06 15,2 C 59 % 0,0 l/m 6,8 km/h (2 Bft) O-SO 112 7,2 C 13,2 C 8,0 km/h (2 Bft)
07.05.2012 14:08 15,3 C 58 % 0,0 l/m 7,2 km/h (2 Bft) S-SO 157 7,1 C 13,1 C 13,4 km/h (3 Bft)
07.05.2012 14:10 15,2 C 59 % 0,0 l/m 6,6 km/h (2 Bft) S 180 7,2 C 13,7 C 13,4 km/h (3 Bft)
07.05.2012 14:12 15,1 C 58 % 0,0 l/m 6,8 km/h (2 Bft) S 180 6,9 C 13,6 C 9,3 km/h (2 Bft)
07.05.2012 14:14 15,1 C 58 % 0,0 l/m 6,8 km/h (2 Bft) S-SO 157 6,9 C 13,6 C 9,3 km/h (2 Bft)
07.05.2012 14:16 15,0 C 58 % 0,0 l/m 6,9 km/h (2 Bft) S-SO 157 6,8 C 13,3 C 9,3 km/h (2 Bft)
07.05.2012 14:18 15,1 C 57 % 0,0 l/m 6,9 km/h (2 Bft) SO 135 6,6 C 13,4 C 12,6 km/h (3 Bft)
07.05.2012 14:20 15,2 C 58 % 0,0 l/m 6,6 km/h (2 Bft) SO 135 7,0 C 13,7 C 12,6 km/h (3 Bft)
07.05.2012 14:22 15,3 C 57 % 0,0 l/m 6,8 km/h (2 Bft) SO 135 6,8 C 13,7 C 9,5 km/h (2 Bft)
07.05.2012 14:24 15,5 C 57 % 0,0 l/m 6,8 km/h (2 Bft) SO 135 7,0 C 14,0 C 10,5 km/h (2 Bft)
07.05.2012 14:26 15,5 C 57 % 0,0 l/m 6,8 km/h (2 Bft) S 180 7,0 C 14,1 C 10,5 km/h (2 Bft)
07.05.2012 14:28 15,6 C 56 % 0,0 l/m 7,2 km/h (2 Bft) SO 135 6,9 C 13,9 C 9,5 km/h (2 Bft)
07.05.2012 14:30 15,7 C 55 % 0,0 l/m 7,4 km/h (2 Bft) SO 135 6,7 C 13,9 C 10,3 km/h (2 Bft)
07.05.2012 14:32 15,6 C 55 % 0,0 l/m 7,2 km/h (2 Bft) O-SO 112 6,6 C 14,2 C 12,9 km/h (3 Bft)
07.05.2012 14:34 15,6 C 54 % 0,0 l/m 6,9 km/h (2 Bft) S 180 6,3 C 14,5 C 12,9 km/h (3 Bft)
07.05.2012 14:36 15,7 C 55 % 0,0 l/m 6,4 km/h (2 Bft) S-SO 157 6,7 C 14,8 C 5,0 km/h (1 Bft)
07.05.2012 14:38 15,9 C 56 % 0,0 l/m 5,3 km/h (1 Bft) O 90 7,1 C 14,9 C 5,0 km/h (1 Bft)
07.05.2012 14:40 15,9 C 55 % 0,0 l/m 4,8 km/h (1 Bft) S 180 6,9 C 15,0 C 4,2 km/h (1 Bft)
07.05.2012 14:42 16,0 C 54 % 0,0 l/m 4,2 km/h (1 Bft) S-SW 202 6,7 C 15,2 C 4,2 km/h (1 Bft)
07.05.2012 14:44 16,1 C 54 % 0,0 l/m 3,5 km/h (1 Bft) W-SW 247 6,8 C 15,3 C 4,2 km/h (1 Bft)
07.05.2012 14:46 16,1 C 53 % 0,0 l/m 3,2 km/h (1 Bft) S 180 6,5 C 15,6 C 2,7 km/h (1 Bft)
07.05.2012 14:48 16,3 C 53 % 0,0 l/m 2,7 km/h (1 Bft) S 180 6,7 C 15,8 C 2,7 km/h (1 Bft)
07.05.2012 14:50 16,6 C 53 % 0,0 l/m 2,7 km/h (1 Bft) S-SO 157 7,0 C 16,1 C 4,5 km/h (1 Bft)
07.05.2012 14:52 16,7 C 53 % 0,0 l/m 2,7 km/h (1 Bft) O-SO 112 7,1 C 16,5 C 4,5 km/h (1 Bft)
07.05.2012 14:54 16,8 C 52 % 0,0 l/m 2,4 km/h (1 Bft) S 180 6,9 C 16,7 C 3,7 km/h (1 Bft)
07.05.2012 14:56 16,8 C 52 % 0,0 l/m 2,4 km/h (1 Bft) S-SW 202 6,9 C 16,8 C 3,5 km/h (1 Bft)
07.05.2012 14:58 17,3 C 54 % 0,0 l/m 2,7 km/h (1 Bft) S 180 7,9 C 17,2 C 4,3 km/h (1 Bft)
07.05.2012 15:00 17,7 C 51 % 0,0 l/m 2,9 km/h (1 Bft) SO 135 7,4 C 17,6 C 4,3 km/h (1 Bft)
07.05.2012 15:02 17,7 C 51 % 0,0 l/m 3,1 km/h (1 Bft) SO 135 7,4 C 17,9 C 7,7 km/h (2 Bft)
07.05.2012 15:04 18,1 C 50 % 0,0 l/m 3,5 km/h (1 Bft) SO 135 7,5 C 18,2 C 8,5 km/h (2 Bft)
07.05.2012 15:06 18,5 C 49 % 0,0 l/m 3,9 km/h (1 Bft) S-SO 157 7,6 C 18,3 C 8,5 km/h (2 Bft)
07.05.2012 15:08 18,7 C 48 % 0,0 l/m 4,0 km/h (1 Bft) SO 135 7,5 C 18,6 C 6,4 km/h (2 Bft)
07.05.2012 15:10 18,8 C 48 % 0,0 l/m 4,3 km/h (1 Bft) O 90 7,6 C 18,9 C 6,4 km/h (2 Bft)
07.05.2012 15:12 18,9 C 47 % 0,0 l/m 4,8 km/h (1 Bft) SO 135 7,3 C 19,1 C 14,8 km/h (3 Bft)
07.05.2012 15:14 18,4 C 47 % 0,0 l/m 5,5 km/h (1 Bft) O-SO 112 6,9 C 19,1 C 14,8 km/h (3 Bft)
07.05.2012 15:16 18,1 C 47 % 0,0 l/m 5,8 km/h (2 Bft) O-SO 112 6,6 C 18,5 C 10,8 km/h (2 Bft)
07.05.2012 15:18 18,0 C 47 % 0,0 l/m 6,6 km/h (2 Bft) O-SO 112 6,5 C 17,8 C 12,1 km/h (2 Bft)
07.05.2012 15:20 18,0 C 47 % 0,0 l/m 7,1 km/h (2 Bft) O-SO 112 6,5 C 17,0 C 12,1 km/h (2 Bft)
07.05.2012 15:22 18,5 C 47 % 0,0 l/m 7,2 km/h (2 Bft) S-SW 202 7,0 C 16,8 C 8,7 km/h (2 Bft)
07.05.2012 15:24 18,7 C 46 % 0,0 l/m 6,3 km/h (2 Bft) S 180 6,8 C 17,3 C 6,3 km/h (2 Bft)
07.05.2012 15:26 18,9 C 47 % 0,0 l/m 6,0 km/h (2 Bft) O-SO 112 7,3 C 17,7 C 7,6 km/h (2 Bft)
07.05.2012 15:28 19,1 C 45 % 0,0 l/m 5,5 km/h (1 Bft) N-NO 22 6,9 C 18,1 C 7,6 km/h (2 Bft)
07.05.2012 15:30 19,1 C 47 % 0,0 l/m 4,2 km/h (1 Bft) N-NO 22 7,5 C 18,7 C 4,7 km/h (1 Bft)
07.05.2012 15:32 19,0 C 46 % 0,0 l/m 3,4 km/h (1 Bft) SO 135 7,1 C 19,2 C 4,7 km/h (1 Bft)
07.05.2012 15:34 18,4 C 46 % 0,0 l/m 3,2 km/h (1 Bft) O-SO 112 6,6 C 19,5 C 7,1 km/h (2 Bft)
07.05.2012 15:36 18,8 C 47 % 0,0 l/m 3,4 km/h (1 Bft) S 180 7,2 C 19,3 C 7,1 km/h (2 Bft)
07.05.2012 15:38 19,1 C 45 % 0,0 l/m 3,2 km/h (1 Bft) O-SO 112 6,9 C 19,1 C 7,6 km/h (2 Bft)
07.05.2012 15:40 19,1 C 45 % 0,0 l/m 3,9 km/h (1 Bft) SO 135 6,9 C 19,1 C 8,2 km/h (2 Bft)
07.05.2012 15:42 19,3 C 45 % 0,0 l/m 4,7 km/h (1 Bft) S 180 7,1 C 19,3 C 8,4 km/h (2 Bft)
07.05.2012 15:44 19,4 C 45 % 0,0 l/m 5,0 km/h (1 Bft) S-SO 157 7,2 C 19,4 C 4,7 km/h (1 Bft)
07.05.2012 15:46 19,4 C 42 % 0,0 l/m 4,7 km/h (1 Bft) O 90 6,2 C 19,5 C 4,7 km/h (1 Bft)
07.05.2012 15:48 19,1 C 43 % 0,0 l/m 4,5 km/h (1 Bft) O-SO 112 6,2 C 19,7 C 9,7 km/h (2 Bft)
07.05.2012 15:50 18,8 C 44 % 0,0 l/m 4,7 km/h (1 Bft) SO 135 6,3 C 19,7 C 9,7 km/h (2 Bft)
07.05.2012 15:52 19,1 C 45 % 0,0 l/m 4,7 km/h (1 Bft) S 180 6,9 C 19,4 C 8,9 km/h (2 Bft)
07.05.2012 15:54 19,1 C 43 % 0,0 l/m 4,2 km/h (1 Bft) S 180 6,2 C 19,3 C 8,9 km/h (2 Bft)
07.05.2012 15:56 19,1 C 44 % 0,0 l/m 4,0 km/h (1 Bft) SO 135 6,6 C 19,5 C 6,6 km/h (2 Bft)
07.05.2012 15:58 19,3 C 44 % 0,0 l/m 4,5 km/h (1 Bft) O 90 6,7 C 19,7 C 6,6 km/h (2 Bft)
07.05.2012 16:00 19,2 C 42 % 0,0 l/m 4,2 km/h (1 Bft) W 270 6,0 C 19,8 C 8,0 km/h (2 Bft)
07.05.2012 16:02 18,6 C 43 % 0,0 l/m 4,5 km/h (1 Bft) S 180 5,8 C 19,7 C 8,0 km/h (2 Bft)
07.05.2012 16:04 18,1 C 45 % 0,0 l/m 4,3 km/h (1 Bft) SO 135 6,0 C 19,3 C 5,3 km/h (1 Bft)
07.05.2012 16:06 18,6 C 45 % 0,0 l/m 4,5 km/h (1 Bft) O-SO 112 6,4 C 18,8 C 4,3 km/h (1 Bft)
07.05.2012 16:08 18,7 C 45 % 0,0 l/m 4,0 km/h (1 Bft) N-NO 22 6,5 C 18,7 C 3,7 km/h (1 Bft)
07.05.2012 16:10 18,3 C 44 % 0,0 l/m 3,5 km/h (1 Bft) NO 45 5,8 C 19,0 C 0,0 km/h (0 Bft)
07.05.2012 16:12 18,1 C 45 % 0,0 l/m 2,7 km/h (1 Bft) O-SO 112 6,0 C 19,0 C 1,9 km/h (1 Bft)
07.05.2012 16:14 18,4 C 45 % 0,0 l/m 2,3 km/h (1 Bft) S-SO 157 6,3 C 18,8 C 6,1 km/h (2 Bft)
07.05.2012 16:16 18,7 C 45 % 0,0 l/m 1,9 km/h (1 Bft) SW 225 6,5 C 18,7 C 6,1 km/h (2 Bft)
07.05.2012 16:18 18,4 C 45 % 0,0 l/m 2,6 km/h (1 Bft) S 180 6,3 C 18,9 C 7,6 km/h (2 Bft)
07.05.2012 16:20 18,4 C 44 % 0,0 l/m 3,4 km/h (1 Bft) S 180 5,9 C 19,0 C 7,6 km/h (2 Bft)
07.05.2012 16:22 18,5 C 44 % 0,0 l/m 3,9 km/h (1 Bft) S 180 6,0 C 18,9 C 4,3 km/h (1 Bft)
07.05.2012 16:24 18,4 C 43 % 0,0 l/m 4,2 km/h (1 Bft) SO 135 5,6 C 19,0 C 7,1 km/h (2 Bft)
07.05.2012 16:26 18,5 C 44 % 0,0 l/m 4,2 km/h (1 Bft) SO 135 6,0 C 19,0 C 8,0 km/h (2 Bft)
07.05.2012 16:28 18,4 C 44 % 0,0 l/m 4,2 km/h (1 Bft) O-SO 112 5,9 C 18,9 C 8,0 km/h (2 Bft)
07.05.2012 16:30 18,2 C 44 % 0,0 l/m 3,2 km/h (1 Bft) S 180 5,7 C 19,0 C 3,2 km/h (1 Bft)
07.05.2012 16:32 18,0 C 44 % 0,0 l/m 2,9 km/h (1 Bft) SO 135 5,6 C 18,9 C 4,3 km/h (1 Bft)
07.05.2012 16:34 18,0 C 44 % 0,0 l/m 2,7 km/h (1 Bft) O-SO 112 5,6 C 18,8 C 4,3 km/h (1 Bft)
07.05.2012 16:36 18,1 C 44 % 0,0 l/m 1,9 km/h (1 Bft) N-NW 337 5,7 C 18,6 C 1,8 km/h (1 Bft)
07.05.2012 16:38 17,9 C 44 % 0,0 l/m 1,1 km/h (1 Bft) O 90 5,5 C 18,5 C 0,0 km/h (0 Bft)
07.05.2012 16:40 17,8 C 45 % 0,0 l/m 0,8 km/h (0 Bft) O-SO 112 5,7 C 18,5 C 0,0 km/h (0 Bft)
07.05.2012 16:42 17,8 C 45 % 0,0 l/m 0,6 km/h (0 Bft) N 360 5,7 C 18,5 C 0,0 km/h (0 Bft)
07.05.2012 16:44 17,7 C 46 % 0,0 l/m 0,2 km/h (0 Bft) S-SO 157 5,9 C 18,4 C 0,0 km/h (0 Bft)
07.05.2012 16:46 17,6 C 47 % 0,0 l/m 0,2 km/h (0 Bft) O-SO 112 6,2 C 18,4 C 1,8 km/h (1 Bft)
07.05.2012 16:48 17,6 C 45 % 0,0 l/m 0,6 km/h (0 Bft) W-SW 247 5,5 C 18,4 C 6,6 km/h (2 Bft)
07.05.2012 16:50 17,5 C 45 % 0,0 l/m 1,3 km/h (1 Bft) S-SW 202 5,4 C 17,9 C 6,6 km/h (2 Bft)
07.05.2012 16:52 17,5 C 45 % 0,0 l/m 1,9 km/h (1 Bft) W-SW 247 5,4 C 17,7 C 4,7 km/h (1 Bft)
07.05.2012 16:54 17,4 C 44 % 0,0 l/m 2,6 km/h (1 Bft) W-SW 247 5,0 C 17,5 C 5,5 km/h (1 Bft)
07.05.2012 16:56 17,6 C 48 % 0,0 l/m 3,7 km/h (1 Bft) W-SW 247 6,5 C 17,3 C 6,6 km/h (2 Bft)
07.05.2012 16:58 17,5 C 50 % 0,0 l/m 4,5 km/h (1 Bft) S-SW 202 7,0 C 17,4 C 6,6 km/h (2 Bft)
07.05.2012 17:00 17,4 C 51 % 0,0 l/m 4,5 km/h (1 Bft) S 180 7,2 C 17,6 C 6,6 km/h (2 Bft)
07.05.2012 17:02 17,3 C 51 % 0,0 l/m 5,0 km/h (1 Bft) W-SW 247 7,1 C 17,6 C 9,0 km/h (2 Bft)
07.05.2012 17:04 17,2 C 51 % 0,0 l/m 5,1 km/h (1 Bft) SW 225 7,0 C 17,4 C 9,0 km/h (2 Bft)
07.05.2012 17:06 17,3 C 51 % 0,0 l/m 5,1 km/h (1 Bft) W-SW 247 7,1 C 17,2 C 6,6 km/h (2 Bft)
07.05.2012 17:08 17,3 C 51 % 0,0 l/m 4,5 km/h (1 Bft) S-SW 202 7,1 C 17,4 C 6,6 km/h (2 Bft)
07.05.2012 17:10 17,3 C 52 % 0,0 l/m 4,3 km/h (1 Bft) W-SW 247 7,3 C 17,8 C 4,2 km/h (1 Bft)
07.05.2012 17:12 17,2 C 51 % 0,0 l/m 4,2 km/h (1 Bft) S-SW 202 7,0 C 18,0 C 7,2 km/h (2 Bft)
07.05.2012 17:14 17,2 C 51 % 0,0 l/m 4,0 km/h (1 Bft) W-SW 247 7,0 C 18,0 C 7,2 km/h (2 Bft)
07.05.2012 17:16 17,2 C 51 % 0,0 l/m 3,9 km/h (1 Bft) W 270 7,0 C 17,9 C 5,1 km/h (1 Bft)
07.05.2012 17:18 17,3 C 51 % 0,0 l/m 4,2 km/h (1 Bft) W-NW 292 7,1 C 17,8 C 5,1 km/h (1 Bft)
07.05.2012 17:20 17,2 C 52 % 0,0 l/m 4,5 km/h (1 Bft) S-SW 202 7,3 C 17,9 C 7,6 km/h (2 Bft)
07.05.2012 17:22 17,1 C 53 % 0,0 l/m 4,5 km/h (1 Bft) W-NW 292 7,4 C 18,2 C 7,6 km/h (2 Bft)
07.05.2012 17:24 17,1 C 52 % 0,0 l/m 4,2 km/h (1 Bft) S-SW 202 7,2 C 18,3 C 5,1 km/h (1 Bft)
07.05.2012 17:26 17,0 C 53 % 0,0 l/m 4,2 km/h (1 Bft) O-SO 112 7,4 C 18,2 C 4,7 km/h (1 Bft)
07.05.2012 17:28 17,0 C 52 % 0,0 l/m 4,0 km/h (1 Bft) S-SW 202 7,1 C 17,8 C 6,9 km/h (2 Bft)
07.05.2012 17:30 17,1 C 53 % 0,0 l/m 3,9 km/h (1 Bft) W-SW 247 7,4 C 17,6 C 6,9 km/h (2 Bft)
07.05.2012 17:32 17,1 C 51 % 0,0 l/m 4,0 km/h (1 Bft) W-SW 247 6,9 C 17,5 C 7,1 km/h (2 Bft)
07.05.2012 17:34 17,1 C 51 % 0,0 l/m 4,2 km/h (1 Bft) W-NW 292 6,9 C 17,7 C 7,1 km/h (2 Bft)
07.05.2012 17:36 16,8 C 51 % 0,0 l/m 4,0 km/h (1 Bft) NW 315 6,6 C 17,8 C 4,5 km/h (1 Bft)
07.05.2012 17:38 16,7 C 51 % 0,0 l/m 4,2 km/h (1 Bft) S-SW 202 6,5 C 17,7 C 5,6 km/h (1 Bft)
07.05.2012 17:40 16,4 C 51 % 0,0 l/m 4,3 km/h (1 Bft) W-NW 292 6,2 C 17,5 C 6,9 km/h (2 Bft)
07.05.2012 17:42 16,2 C 51 % 0,0 l/m 4,2 km/h (1 Bft) NW 315 6,1 C 17,2 C 6,9 km/h (2 Bft)
07.05.2012 17:44 16,3 C 51 % 0,0 l/m 3,9 km/h (1 Bft) W 270 6,1 C 16,9 C 7,4 km/h (2 Bft)
07.05.2012 17:46 16,0 C 50 % 0,0 l/m 4,2 km/h (1 Bft) W 270 5,6 C 16,8 C 7,4 km/h (2 Bft)
07.05.2012 17:48 16,0 C 51 % 0,0 l/m 4,0 km/h (1 Bft) W-NW 292 5,9 C 16,4 C 4,8 km/h (1 Bft)
07.05.2012 17:50 15,9 C 53 % 0,0 l/m 3,5 km/h (1 Bft) SO 135 6,3 C 16,1 C 4,8 km/h (1 Bft)
07.05.2012 17:52 15,9 C 51 % 0,0 l/m 3,4 km/h (1 Bft) W-SW 247 5,8 C 16,0 C 3,1 km/h (1 Bft)
07.05.2012 17:54 15,8 C 52 % 0,0 l/m 3,1 km/h (1 Bft) N-NW 337 6,0 C 15,9 C 3,1 km/h (1 Bft)
07.05.2012 17:56 15,8 C 53 % 0,0 l/m 2,4 km/h (1 Bft) N-NO 22 6,2 C 15,8 C 2,3 km/h (1 Bft)
07.05.2012 17:58 15,9 C 53 % 0,0 l/m 2,1 km/h (1 Bft) S 180 6,3 C 15,8 C 4,2 km/h (1 Bft)
07.05.2012 18:00 15,9 C 52 % 0,0 l/m 2,3 km/h (1 Bft) S-SW 202 6,1 C 15,8 C 4,2 km/h (1 Bft)
07.05.2012 18:02 15,9 C 52 % 0,0 l/m 2,4 km/h (1 Bft) S 180 6,1 C 15,8 C 4,0 km/h (1 Bft)
07.05.2012 18:04 16,0 C 53 % 0,0 l/m 2,6 km/h (1 Bft) S-SW 202 6,4 C 15,8 C 4,2 km/h (1 Bft)
07.05.2012 18:06 15,9 C 54 % 0,0 l/m 3,2 km/h (1 Bft) S 180 6,6 C 15,8 C 4,8 km/h (1 Bft)
07.05.2012 18:08 15,8 C 55 % 0,0 l/m 3,7 km/h (1 Bft) SO 135 6,8 C 15,7 C 5,8 km/h (2 Bft)
07.05.2012 18:10 15,8 C 56 % 0,0 l/m 3,9 km/h (1 Bft) S 180 7,0 C 15,5 C 5,8 km/h (2 Bft)
07.05.2012 18:12 15,9 C 56 % 0,0 l/m 4,0 km/h (1 Bft) S 180 7,1 C 15,4 C 5,6 km/h (1 Bft)
07.05.2012 18:14 15,7 C 56 % 0,0 l/m 4,8 km/h (1 Bft) S 180 6,9 C 15,3 C 10,9 km/h (2 Bft)
07.05.2012 18:16 15,9 C 56 % 0,0 l/m 5,0 km/h (1 Bft) SO 135 7,1 C 15,1 C 10,9 km/h (2 Bft)
07.05.2012 18:18 15,9 C 57 % 0,0 l/m 5,1 km/h (1 Bft) S-SO 157 7,4 C 15,3 C 6,8 km/h (2 Bft)
07.05.2012 18:20 15,7 C 57 % 0,0 l/m 5,5 km/h (1 Bft) S-SW 202 7,2 C 15,5 C 6,4 km/h (2 Bft)
07.05.2012 18:22 15,6 C 57 % 0,0 l/m 4,8 km/h (1 Bft) S 180 7,1 C 15,6 C 5,5 km/h (1 Bft)
07.05.2012 18:24 15,7 C 57 % 0,0 l/m 4,8 km/h (1 Bft) S 180 7,2 C 15,6 C 5,8 km/h (2 Bft)
07.05.2012 18:26 15,6 C 58 % 0,0 l/m 4,2 km/h (1 Bft) S 180 7,4 C 15,5 C 5,8 km/h (2 Bft)
07.05.2012 18:28 15,6 C 57 % 0,0 l/m 4,0 km/h (1 Bft) SO 135 7,1 C 15,5 C 4,2 km/h (1 Bft)
07.05.2012 18:30 15,5 C 58 % 0,0 l/m 3,9 km/h (1 Bft) S 180 7,3 C 15,5 C 6,0 km/h (2 Bft)
07.05.2012 18:32 15,4 C 58 % 0,0 l/m 3,7 km/h (1 Bft) S-SO 157 7,2 C 15,7 C 6,0 km/h (2 Bft)
07.05.2012 18:34 15,5 C 58 % 0,0 l/m 4,3 km/h (1 Bft) SO 135 7,3 C 15,6 C 10,1 km/h (2 Bft)
07.05.2012 18:36 15,4 C 58 % 0,0 l/m 4,7 km/h (1 Bft) S 180 7,2 C 15,5 C 10,1 km/h (2 Bft)
07.05.2012 18:38 15,5 C 58 % 0,0 l/m 4,7 km/h (1 Bft) SO 135 7,3 C 15,6 C 6,1 km/h (2 Bft)
07.05.2012 18:40 15,4 C 58 % 0,0 l/m 5,3 km/h (1 Bft) S 180 7,2 C 16,0 C 6,3 km/h (2 Bft)
07.05.2012 18:42 15,5 C 58 % 0,0 l/m 5,1 km/h (1 Bft) S 180 7,3 C 16,2 C 6,3 km/h (2 Bft)
07.05.2012 18:44 15,3 C 59 % 0,0 l/m 5,5 km/h (1 Bft) S 180 7,3 C 16,6 C 7,4 km/h (2 Bft)
07.05.2012 18:46 15,3 C 58 % 0,0 l/m 5,1 km/h (1 Bft) SO 135 7,1 C 16,7 C 7,4 km/h (2 Bft)
07.05.2012 18:48 15,2 C 58 % 0,0 l/m 5,1 km/h (1 Bft) SO 135 7,0 C 16,4 C 4,5 km/h (1 Bft)
07.05.2012 18:50 15,0 C 58 % 0,0 l/m 4,3 km/h (1 Bft) S 180 6,8 C 16,0 C 3,5 km/h (1 Bft)
07.05.2012 18:52 14,9 C 59 % 0,0 l/m 3,7 km/h (1 Bft) S 180 7,0 C 15,9 C 3,2 km/h (1 Bft)
07.05.2012 18:54 14,8 C 59 % 0,0 l/m 3,4 km/h (1 Bft) S 180 6,9 C 15,6 C 3,4 km/h (1 Bft)
07.05.2012 18:56 14,8 C 59 % 0,0 l/m 2,9 km/h (1 Bft) S 180 6,9 C 15,2 C 3,4 km/h (1 Bft)
07.05.2012 18:58 14,7 C 59 % 0,0 l/m 2,9 km/h (1 Bft) SO 135 6,8 C 14,9 C 7,1 km/h (2 Bft)
07.05.2012 19:00 14,7 C 59 % 0,0 l/m 2,9 km/h (1 Bft) SO 135 6,8 C 14,5 C 7,1 km/h (2 Bft)
07.05.2012 19:02 14,5 C 60 % 0,0 l/m 3,2 km/h (1 Bft) O-SO 112 6,8 C 14,1 C 4,2 km/h (1 Bft)
07.05.2012 19:04 14,4 C 61 % 0,0 l/m 3,2 km/h (1 Bft) O-SO 112 7,0 C 13,9 C 4,2 km/h (1 Bft)
07.05.2012 19:06 14,5 C 61 % 0,0 l/m 3,2 km/h (1 Bft) SO 135 7,1 C 13,7 C 3,7 km/h (1 Bft)
07.05.2012 19:08 14,4 C 61 % 0,0 l/m 3,1 km/h (1 Bft) O-SO 112 7,0 C 13,5 C 3,7 km/h (1 Bft)
07.05.2012 19:10 14,4 C 61 % 0,0 l/m 2,7 km/h (1 Bft) S-SO 157 7,0 C 13,3 C 3,9 km/h (1 Bft)
07.05.2012 19:12 14,3 C 62 % 0,0 l/m 2,7 km/h (1 Bft) S 180 7,1 C 13,1 C 3,9 km/h (1 Bft)
07.05.2012 19:14 14,3 C 62 % 0,0 l/m 2,6 km/h (1 Bft) SO 135 7,1 C 13,1 C 3,2 km/h (1 Bft)
07.05.2012 19:16 14,3 C 62 % 0,0 l/m 2,6 km/h (1 Bft) S 180 7,1 C 13,1 C 3,2 km/h (1 Bft)
07.05.2012 19:18 14,3 C 62 % 0,0 l/m 2,6 km/h (1 Bft) S-SW 202 7,1 C 13,3 C 4,5 km/h (1 Bft)
07.05.2012 19:20 14,3 C 62 % 0,0 l/m 2,6 km/h (1 Bft) S-SO 157 7,1 C 13,4 C 4,5 km/h (1 Bft)
07.05.2012 19:22 14,3 C 62 % 0,0 l/m 2,6 km/h (1 Bft) W-SW 247 7,1 C 13,5 C 4,8 km/h (1 Bft)
07.05.2012 19:24 14,3 C 62 % 0,0 l/m 2,3 km/h (1 Bft) S-SW 202 7,1 C 13,6 C 4,8 km/h (1 Bft)
07.05.2012 19:26 14,3 C 63 % 0,0 l/m 2,1 km/h (1 Bft) S 180 7,4 C 13,9 C 1,6 km/h (1 Bft)
07.05.2012 19:28 14,1 C 63 % 0,0 l/m 2,1 km/h (1 Bft) S 180 7,2 C 13,9 C 2,1 km/h (1 Bft)
07.05.2012 19:30 14,1 C 63 % 0,0 l/m 1,6 km/h (1 Bft) W-SW 247 7,2 C 13,8 C 2,1 km/h (1 Bft)
07.05.2012 19:32 14,0 C 63 % 0,0 l/m 1,3 km/h (1 Bft) SO 135 7,1 C 13,6 C 0,0 km/h (0 Bft)
07.05.2012 19:34 14,1 C 63 % 0,0 l/m 0,8 km/h (0 Bft) O-SO 112 7,2 C 13,4 C 0,0 km/h (0 Bft)
07.05.2012 19:36 14,0 C 63 % 0,0 l/m 0,6 km/h (0 Bft) O-SO 112 7,1 C 13,3 C 0,0 km/h (0 Bft)
07.05.2012 19:38 13,9 C 63 % 0,0 l/m 0,3 km/h (0 Bft) S-SO 157 7,0 C 13,1 C 0,0 km/h (0 Bft)
07.05.2012 19:40 13,8 C 63 % 0,0 l/m 0,0 km/h (0 Bft) SO 135 6,9 C 12,9 C 0,0 km/h (0 Bft)
07.05.2012 19:42 13,8 C 64 % 0,0 l/m 0,0 km/h (0 Bft) N-NW 337 7,1 C 12,9 C 0,0 km/h (0 Bft)
07.05.2012 19:44 13,6 C 65 % 0,0 l/m 0,0 km/h (0 Bft) O 90 7,1 C 12,7 C 0,0 km/h (0 Bft)
07.05.2012 19:46 13,7 C 66 % 0,0 l/m 0,0 km/h (0 Bft) N-NO 22 7,5 C 12,7 C 0,0 km/h (0 Bft)
07.05.2012 19:48 13,5 C 67 % 0,0 l/m 0,0 km/h (0 Bft) N-NO 22 7,5 C 12,9 C 0,0 km/h (0 Bft)
07.05.2012 19:50 13,5 C 67 % 0,0 l/m 0,0 km/h (0 Bft) O-NO 67 7,5 C 13,4 C 0,0 km/h (0 Bft)
07.05.2012 19:52 13,4 C 67 % 0,0 l/m 0,0 km/h (0 Bft) NO 45 7,4 C 13,7 C 0,0 km/h (0 Bft)
07.05.2012 19:54 13,3 C 67 % 0,0 l/m 0,0 km/h (0 Bft) S-SW 202 7,3 C 14,1 C 0,0 km/h (0 Bft)
07.05.2012 19:56 13,3 C 67 % 0,0 l/m 0,0 km/h (0 Bft) W-SW 247 7,3 C 14,2 C 0,0 km/h (0 Bft)
07.05.2012 19:58 13,3 C 66 % 0,0 l/m 0,0 km/h (0 Bft) W 270 7,1 C 14,3 C 0,0 km/h (0 Bft)
07.05.2012 20:00 13,5 C 67 % 0,0 l/m 0,0 km/h (0 Bft) S-SO 157 7,5 C 14,4 C 0,0 km/h (0 Bft)
07.05.2012 20:02 13,4 C 67 % 0,0 l/m 0,0 km/h (0 Bft) N-NW 337 7,4 C 14,6 C 0,0 km/h (0 Bft)
07.05.2012 20:04 13,3 C 67 % 0,0 l/m 0,0 km/h (0 Bft) N 360 7,3 C 14,7 C 0,0 km/h (0 Bft)
07.05.2012 20:06 13,2 C 67 % 0,0 l/m 0,0 km/h (0 Bft) W-NW 292 7,2 C 14,7 C 0,0 km/h (0 Bft)
07.05.2012 20:08 13,2 C 68 % 0,0 l/m 0,0 km/h (0 Bft) N 360 7,4 C 14,4 C 0,0 km/h (0 Bft)
07.05.2012 20:10 13,1 C 68 % 0,0 l/m 0,2 km/h (0 Bft) N-NO 22 7,3 C 14,2 C 0,0 km/h (0 Bft)
07.05.2012 20:12 13,0 C 68 % 0,0 l/m 0,3 km/h (0 Bft) N-NO 22 7,2 C 13,8 C 1,6 km/h (1 Bft)
07.05.2012 20:14 12,9 C 69 % 0,0 l/m 0,3 km/h (0 Bft) NO 45 7,4 C 13,4 C 0,0 km/h (0 Bft)
07.05.2012 20:16 12,8 C 69 % 0,0 l/m 0,3 km/h (0 Bft) N 360 7,3 C 13,2 C 1,6 km/h (1 Bft)
07.05.2012 20:18 12,7 C 69 % 0,0 l/m 0,3 km/h (0 Bft) N-NO 22 7,2 C 12,6 C 1,6 km/h (1 Bft)
07.05.2012 20:20 12,7 C 70 % 0,0 l/m 0,3 km/h (0 Bft) N 360 7,4 C 12,3 C 0,0 km/h (0 Bft)
07.05.2012 20:22 12,5 C 71 % 0,0 l/m 0,2 km/h (0 Bft) N-NO 22 7,4 C 12,1 C 0,0 km/h (0 Bft)
07.05.2012 20:24 12,4 C 71 % 0,0 l/m 0,2 km/h (0 Bft) N-NO 22 7,3 C 11,9 C 0,0 km/h (0 Bft)
07.05.2012 20:26 12,2 C 71 % 0,0 l/m 0,2 km/h (0 Bft) N-NO 22 7,1 C 11,7 C 0,0 km/h (0 Bft)
07.05.2012 20:28 12,0 C 72 % 0,0 l/m 0,0 km/h (0 Bft) N 360 7,1 C 11,5 C 0,0 km/h (0 Bft)
07.05.2012 20:30 11,9 C 72 % 0,0 l/m 0,0 km/h (0 Bft) NO 45 7,0 C 11,2 C 0,0 km/h (0 Bft)
07.05.2012 20:32 11,9 C 72 % 0,0 l/m 0,0 km/h (0 Bft) NO 45 7,0 C 10,9 C 0,0 km/h (0 Bft)
07.05.2012 20:34 11,6 C 72 % 0,0 l/m 0,0 km/h (0 Bft) O 90 6,7 C 10,6 C 0,0 km/h (0 Bft)
07.05.2012 20:36 11,6 C 73 % 0,0 l/m 0,0 km/h (0 Bft) N-NO 22 6,9 C 10,5 C 0,0 km/h (0 Bft)
07.05.2012 20:38 11,5 C 73 % 0,0 l/m 0,2 km/h (0 Bft) N 360 6,8 C 10,3 C 0,0 km/h (0 Bft)
07.05.2012 20:40 11,3 C 73 % 0,0 l/m 0,2 km/h (0 Bft) N-NW 337 6,6 C 10,1 C 1,6 km/h (1 Bft)
07.05.2012 20:42 11,2 C 73 % 0,0 l/m 0,2 km/h (0 Bft) N-NW 337 6,5 C 9,9 C 1,6 km/h (1 Bft)
07.05.2012 20:44 11,0 C 73 % 0,0 l/m 0,2 km/h (0 Bft) N-NW 337 6,4 C 9,6 C 0,0 km/h (0 Bft)
07.05.2012 20:46 11,0 C 74 % 0,0 l/m 0,0 km/h (0 Bft) N-NO 22 6,5 C 9,5 C 0,0 km/h (0 Bft)
07.05.2012 20:48 10,8 C 74 % 0,0 l/m 0,2 km/h (0 Bft) NO 45 6,4 C 9,2 C 0,0 km/h (0 Bft)
07.05.2012 20:50 10,7 C 74 % 0,0 l/m 0,0 km/h (0 Bft) N-NO 22 6,3 C 9,0 C 0,0 km/h (0 Bft)
07.05.2012 20:53 10,6 C 75 % 0,0 l/m 0,0 km/h (0 Bft) N-NW 337 6,4 C 8,9 C 0,0 km/h (0 Bft)
07.05.2012 20:54 10,5 C 75 % 0,0 l/m 0,0 km/h (0 Bft) N 360 6,3 C 8,7 C 0,0 km/h (0 Bft)
07.05.2012 20:56 10,4 C 75 % 0,0 l/m 0,0 km/h (0 Bft) N-NW 337 6,2 C 8,7 C 0,0 km/h (0 Bft)
07.05.2012 20:58 10,2 C 75 % 0,0 l/m 0,0 km/h (0 Bft) N-NW 337 6,0 C 8,5 C 0,0 km/h (0 Bft)
07.05.2012 21:00 10,1 C 75 % 0,0 l/m 0,3 km/h (0 Bft) N-NO 22 5,9 C 8,3 C 2,3 km/h (1 Bft)
07.05.2012 21:02 10,0 C 75 % 0,0 l/m 0,5 km/h (0 Bft) NO 45 5,8 C 8,1 C 2,3 km/h (1 Bft)
07.05.2012 21:04 10,0 C 75 % 0,0 l/m 0,5 km/h (0 Bft) N-NO 22 5,8 C 8,0 C 2,3 km/h (1 Bft)
07.05.2012 21:06 9,9 C 76 % 0,0 l/m 0,5 km/h (0 Bft) N-NO 22 5,9 C 7,8 C 0,0 km/h (0 Bft)
07.05.2012 21:08 9,7 C 76 % 0,0 l/m 0,5 km/h (0 Bft) N 360 5,7 C 7,6 C 1,9 km/h (1 Bft)
07.05.2012 21:10 9,7 C 76 % 0,0 l/m 0,5 km/h (0 Bft) N 360 5,7 C 7,5 C 0,0 km/h (0 Bft)
07.05.2012 21:12 9,5 C 77 % 0,0 l/m 0,3 km/h (0 Bft) N 360 5,7 C 7,4 C 0,0 km/h (0 Bft)
07.05.2012 21:15 9,5 C 77 % 0,0 l/m 0,2 km/h (0 Bft) N-NO 22 5,7 C 7,3 C 0,0 km/h (0 Bft)
07.05.2012 21:16 9,3 C 77 % 0,0 l/m 0,2 km/h (0 Bft) N-NO 22 5,5 C 7,2 C 0,0 km/h (0 Bft)
07.05.2012 21:18 9,2 C 78 % 0,0 l/m 0,2 km/h (0 Bft) NO 45 5,6 C 7,1 C 0,0 km/h (0 Bft)
07.05.2012 21:20 9,2 C 78 % 0,0 l/m 0,2 km/h (0 Bft) N-NO 22 5,6 C 7,1 C 0,0 km/h (0 Bft)
07.05.2012 21:22 9,2 C 78 % 0,0 l/m 0,0 km/h (0 Bft) NO 45 5,6 C 7,1 C 0,0 km/h (0 Bft)
07.05.2012 21:24 9,1 C 78 % 0,0 l/m 0,0 km/h (0 Bft) NO 45 5,5 C 7,1 C 0,0 km/h (0 Bft)
07.05.2012 21:26 9,0 C 79 % 0,0 l/m 0,2 km/h (0 Bft) NO 45 5,6 C 7,1 C 0,0 km/h (0 Bft)
07.05.2012 21:28 8,9 C 79 % 0,0 l/m 0,2 km/h (0 Bft) NO 45 5,5 C 7,1 C 0,0 km/h (0 Bft)
07.05.2012 21:30 8,8 C 79 % 0,0 l/m 0,2 km/h (0 Bft) SW 225 5,4 C 7,0 C 0,0 km/h (0 Bft)
07.05.2012 21:32 8,8 C 79 % 0,0 l/m 0,2 km/h (0 Bft) N 360 5,4 C 7,0 C 0,0 km/h (0 Bft)
07.05.2012 21:34 8,9 C 79 % 0,0 l/m 0,2 km/h (0 Bft) N-NO 22 5,5 C 7,0 C 0,0 km/h (0 Bft)
07.05.2012 21:36 8,8 C 79 % 0,0 l/m 0,0 km/h (0 Bft) N-NO 22 5,4 C 6,9 C 0,0 km/h (0 Bft)
07.05.2012 21:38 8,8 C 79 % 0,0 l/m 0,0 km/h (0 Bft) N-NO 22 5,4 C 6,9 C 0,0 km/h (0 Bft)
07.05.2012 21:40 8,8 C 79 % 0,0 l/m 0,0 km/h (0 Bft) N-NO 22 5,4 C 6,9 C 1,6 km/h (1 Bft)
07.05.2012 21:42 8,7 C 79 % 0,0 l/m 0,2 km/h (0 Bft) N 360 5,3 C 6,8 C 1,8 km/h (1 Bft)
07.05.2012 21:44 8,7 C 79 % 0,0 l/m 0,2 km/h (0 Bft) N-NO 22 5,3 C 6,7 C 1,8 km/h (1 Bft)
07.05.2012 21:46 8,8 C 79 % 0,0 l/m 0,5 km/h (0 Bft) NO 45 5,4 C 6,6 C 2,4 km/h (1 Bft)
07.05.2012 21:48 8,8 C 79 % 0,0 l/m 0,5 km/h (0 Bft) O-NO 67 5,4 C 6,6 C 2,4 km/h (1 Bft)
07.05.2012 21:50 8,8 C 79 % 0,0 l/m 0,5 km/h (0 Bft) O 90 5,4 C 6,5 C 0,0 km/h (0 Bft)
07.05.2012 21:52 8,7 C 79 % 0,0 l/m 0,3 km/h (0 Bft) N-NO 22 5,3 C 6,4 C 0,0 km/h (0 Bft)
07.05.2012 21:54 8,7 C 79 % 0,0 l/m 0,3 km/h (0 Bft) N-NO 22 5,3 C 6,3 C 0,0 km/h (0 Bft)
07.05.2012 21:56 8,7 C 79 % 0,0 l/m 0,3 km/h (0 Bft) N-NO 22 5,3 C 6,2 C 0,0 km/h (0 Bft)
07.05.2012 21:58 8,5 C 79 % 0,0 l/m 0,0 km/h (0 Bft) N 360 5,1 C 6,2 C 0,0 km/h (0 Bft)
07.05.2012 22:00 8,5 C 79 % 0,0 l/m 0,2 km/h (0 Bft) O-NO 67 5,1 C 6,1 C 1,6 km/h (1 Bft)
07.05.2012 22:02 8,4 C 80 % 0,0 l/m 0,3 km/h (0 Bft) N 360 5,2 C 6,1 C 1,9 km/h (1 Bft)
07.05.2012 22:04 8,3 C 80 % 0,0 l/m 0,6 km/h (0 Bft) N-NO 22 5,1 C 6,1 C 2,6 km/h (1 Bft)
07.05.2012 22:06 8,3 C 80 % 0,0 l/m 1,0 km/h (0 Bft) NO 45 5,1 C 6,0 C 2,7 km/h (1 Bft)
07.05.2012 22:08 8,3 C 80 % 0,0 l/m 1,3 km/h (1 Bft) O 90 5,1 C 6,0 C 2,7 km/h (1 Bft)
07.05.2012 22:10 8,3 C 80 % 0,0 l/m 1,3 km/h (1 Bft) S-SO 157 5,1 C 6,0 C 0,0 km/h (0 Bft)
07.05.2012 22:12 8,3 C 79 % 0,0 l/m 1,1 km/h (1 Bft) N 360 4,9 C 5,9 C 0,0 km/h (0 Bft)
07.05.2012 22:14 8,3 C 80 % 0,0 l/m 0,8 km/h (0 Bft) N-NO 22 5,1 C 5,8 C 1,8 km/h (1 Bft)
07.05.2012 22:16 8,3 C 80 % 0,0 l/m 0,6 km/h (0 Bft) N-NO 22 5,1 C 5,7 C 1,8 km/h (1 Bft)
07.05.2012 22:18 8,2 C 80 % 0,0 l/m 0,2 km/h (0 Bft) N-NW 337 5,0 C 5,7 C 0,0 km/h (0 Bft)
07.05.2012 22:20 8,1 C 80 % 0,0 l/m 0,0 km/h (0 Bft) NO 45 4,9 C 5,7 C 0,0 km/h (0 Bft)
07.05.2012 22:22 8,1 C 80 % 0,0 l/m 0,2 km/h (0 Bft) N-NO 22 4,9 C 5,6 C 1,8 km/h (1 Bft)
07.05.2012 22:24 8,1 C 80 % 0,0 l/m 0,2 km/h (0 Bft) NO 45 4,9 C 5,6 C 1,8 km/h (1 Bft)
07.05.2012 22:26 8,0 C 80 % 0,0 l/m 0,2 km/h (0 Bft) N 360 4,8 C 5,6 C 0,0 km/h (0 Bft)
07.05.2012 22:28 8,0 C 80 % 0,0 l/m 0,2 km/h (0 Bft) NO 45 4,8 C 5,6 C 0,0 km/h (0 Bft)
07.05.2012 22:30 8,0 C 80 % 0,0 l/m 0,3 km/h (0 Bft) NO 45 4,8 C 5,6 C 2,3 km/h (1 Bft)
07.05.2012 22:32 8,0 C 80 % 0,0 l/m 0,2 km/h (0 Bft) N-NO 22 4,8 C 5,6 C 2,3 km/h (1 Bft)
07.05.2012 22:34 8,0 C 80 % 0,0 l/m 0,3 km/h (0 Bft) N-NO 22 4,8 C 5,5 C 1,9 km/h (1 Bft)
07.05.2012 22:36 7,9 C 80 % 0,0 l/m 0,3 km/h (0 Bft) N-NO 22 4,7 C 5,5 C 1,9 km/h (1 Bft)
07.05.2012 22:38 7,9 C 80 % 0,0 l/m 0,3 km/h (0 Bft) NO 45 4,7 C 5,4 C 0,0 km/h (0 Bft)
07.05.2012 22:40 7,8 C 80 % 0,0 l/m 0,5 km/h (0 Bft) NO 45 4,6 C 5,3 C 0,0 km/h (0 Bft)
07.05.2012 22:42 7,7 C 80 % 0,0 l/m 0,3 km/h (0 Bft) NO 45 4,5 C 5,3 C 0,0 km/h (0 Bft)
07.05.2012 22:44 7,7 C 80 % 0,0 l/m 0,3 km/h (0 Bft) N-NO 22 4,5 C 5,2 C 0,0 km/h (0 Bft)
07.05.2012 22:46 7,6 C 81 % 0,0 l/m 0,2 km/h (0 Bft) N-NO 22 4,6 C 5,2 C 0,0 km/h (0 Bft)
07.05.2012 22:48 7,6 C 81 % 0,0 l/m 0,2 km/h (0 Bft) N-NO 22 4,6 C 5,2 C 0,0 km/h (0 Bft)
07.05.2012 22:50 7,6 C 81 % 0,0 l/m 0,0 km/h (0 Bft) N-NW 337 4,6 C 5,3 C 0,0 km/h (0 Bft)
07.05.2012 22:52 7,6 C 81 % 0,0 l/m 0,0 km/h (0 Bft) NO 45 4,6 C 5,2 C 0,0 km/h (0 Bft)
07.05.2012 22:54 7,7 C 81 % 0,0 l/m 0,2 km/h (0 Bft) NO 45 4,7 C 5,1 C 1,8 km/h (1 Bft)
07.05.2012 22:56 7,6 C 81 % 0,0 l/m 0,2 km/h (0 Bft) NO 45 4,6 C 5,1 C 1,8 km/h (1 Bft)
07.05.2012 22:58 7,6 C 81 % 0,0 l/m 0,2 km/h (0 Bft) N-NO 22 4,6 C 5,1 C 0,0 km/h (0 Bft)
07.05.2012 23:00 7,5 C 81 % 0,0 l/m 0,2 km/h (0 Bft) NO 45 4,5 C 5,1 C 1,6 km/h (1 Bft)
07.05.2012 23:02 7,5 C 82 % 0,0 l/m 0,2 km/h (0 Bft) N 360 4,6 C 5,2 C 1,6 km/h (1 Bft)
07.05.2012 23:04 7,3 C 82 % 0,0 l/m 0,3 km/h (0 Bft) N 360 4,4 C 5,2 C 1,6 km/h (1 Bft)
07.05.2012 23:06 7,2 C 82 % 0,0 l/m 0,3 km/h (0 Bft) N-NO 22 4,3 C 5,2 C 0,0 km/h (0 Bft)
07.05.2012 23:08 7,2 C 82 % 0,0 l/m 0,2 km/h (0 Bft) N 360 4,3 C 5,2 C 1,6 km/h (1 Bft)
07.05.2012 23:10 7,2 C 83 % 0,0 l/m 0,3 km/h (0 Bft) NO 45 4,5 C 5,2 C 1,6 km/h (1 Bft)
07.05.2012 23:12 7,3 C 82 % 0,0 l/m 0,2 km/h (0 Bft) N 360 4,4 C 5,2 C 0,0 km/h (0 Bft)
07.05.2012 23:14 7,2 C 83 % 0,0 l/m 0,2 km/h (0 Bft) N 360 4,5 C 5,2 C 0,0 km/h (0 Bft)
07.05.2012 23:16 7,2 C 82 % 0,0 l/m 0,0 km/h (0 Bft) N-NO 22 4,3 C 5,2 C 0,0 km/h (0 Bft)
07.05.2012 23:18 7,3 C 82 % 0,0 l/m 0,0 km/h (0 Bft) N-NO 22 4,4 C 5,2 C 0,0 km/h (0 Bft)
07.05.2012 23:20 7,3 C 82 % 0,0 l/m 0,0 km/h (0 Bft) N-NW 337 4,4 C 5,2 C 0,0 km/h (0 Bft)
07.05.2012 23:22 7,3 C 82 % 0,0 l/m 0,0 km/h (0 Bft) N-NO 22 4,4 C 5,2 C 0,0 km/h (0 Bft)
07.05.2012 23:24 7,3 C 82 % 0,0 l/m 0,2 km/h (0 Bft) NO 45 4,4 C 5,2 C 1,6 km/h (1 Bft)
07.05.2012 23:26 7,3 C 82 % 0,0 l/m 0,2 km/h (0 Bft) N-NW 337 4,4 C 5,1 C 1,6 km/h (1 Bft)
07.05.2012 23:28 7,2 C 82 % 0,0 l/m 0,2 km/h (0 Bft) N 360 4,3 C 5,1 C 0,0 km/h (0 Bft)
07.05.2012 23:30 7,3 C 82 % 0,0 l/m 0,2 km/h (0 Bft) NO 45 4,4 C 5,1 C 0,0 km/h (0 Bft)
07.05.2012 23:32 7,3 C 82 % 0,0 l/m 0,2 km/h (0 Bft) NO 45 4,4 C 5,1 C 0,0 km/h (0 Bft)
07.05.2012 23:34 7,2 C 82 % 0,0 l/m 0,0 km/h (0 Bft) NO 45 4,3 C 5,1 C 0,0 km/h (0 Bft)
07.05.2012 23:36 7,2 C 82 % 0,0 l/m 0,0 km/h (0 Bft) NO 45 4,3 C 5,1 C 0,0 km/h (0 Bft)
07.05.2012 23:38 7,2 C 82 % 0,0 l/m 0,0 km/h (0 Bft) NO 45 4,3 C 5,0 C 0,0 km/h (0 Bft)
07.05.2012 23:40 7,3 C 82 % 0,0 l/m 0,0 km/h (0 Bft) NO 45 4,4 C 5,0 C 0,0 km/h (0 Bft)
07.05.2012 23:42 7,2 C 82 % 0,0 l/m 0,0 km/h (0 Bft) NO 45 4,3 C 4,8 C 0,0 km/h (0 Bft)
07.05.2012 23:44 7,2 C 82 % 0,0 l/m 0,0 km/h (0 Bft) NO 45 4,3 C 4,8 C 0,0 km/h (0 Bft)
07.05.2012 23:46 7,2 C 82 % 0,0 l/m 0,0 km/h (0 Bft) NO 45 4,3 C 4,6 C 0,0 km/h (0 Bft)
07.05.2012 23:48 7,1 C 82 % 0,0 l/m 0,2 km/h (0 Bft) O-NO 67 4,2 C 4,7 C 0,0 km/h (0 Bft)
07.05.2012 23:50 7,0 C 82 % 0,0 l/m 0,2 km/h (0 Bft) O-SO 112 4,1 C 4,7 C 0,0 km/h (0 Bft)
07.05.2012 23:52 7,0 C 82 % 0,0 l/m 0,2 km/h (0 Bft) NO 45 4,1 C 4,7 C 0,0 km/h (0 Bft)
07.05.2012 23:54 7,1 C 82 % 0,0 l/m 0,2 km/h (0 Bft) NO 45 4,2 C 4,8 C 0,0 km/h (0 Bft)
07.05.2012 23:56 7,0 C 82 % 0,0 l/m 0,2 km/h (0 Bft) NO 45 4,1 C 4,7 C 0,0 km/h (0 Bft)
07.05.2012 23:58 6,9 C 82 % 0,0 l/m 0,0 km/h (0 Bft) NO 45 4,0 C 4,7 C 1,6 km/h (1 Bft)
_ Min-Zeit 04:40 15:46 - 00:44 - - 04:40 04:46 00:14
Minimum _ 5,5 C 42 % - 0,0 km/h (0 Bft) - - 3,2 C 3,5 C 0,0 km/h (0 Bft)
_ Max-Zeit 15:44 06:26 00:00 11:14 - - 12:36 16:00 13:26
Maximum _ 19,4 C 88 % 0,0 l/m 8,7 km/h
O-SO (2 Bft)
- - 9,4 C 19,8 C 16,6 km/h
O-SO (3 Bft)
Durchschnitt _ 11,6 C 70 % #0,0 l/m 2,4 km/h (1 Bft) S - 6,0 C 10,6 C 3,8 km/h (1 Bft)